GFSCGP_sfc_thetae_036.txt.gz
Theta_e
304 298 296 299 301 303 306 306 306 310 315 312 313 320 326 329 329 330 330 331 332 333 336 339 340 341 340 341 341 341 341 344 346 344 342 339 338 340 344 346 348 348 351 353
302 298 303 306 305 304 305 303 306 312 315 309 310 317 325 328 328 330 330 331 332 333 335 337 339 340 340 340 341 341 341 342 346 345 345 341 340 342 344 344 348 349 352 354
302 305 309 307 305 303 303 301 303 306 311 309 311 314 319 325 329 330 331 333 333 333 332 336 338 339 340 340 341 342 342 342 345 346 344 344 346 343 343 341 348 350 353 355
302 310 307 306 304 305 298 306 307 307 304 299 306 301 314 320 322 323 325 328 330 332 334 335 336 338 338 341 342 344 344 344 344 347 344 344 343 343 343 341 344 350 353 355
300 304 306 304 306 309 303 307 306 306 302 298 303 296 310 320 317 317 321 324 328 333 334 334 335 337 339 342 342 344 346 345 345 348 345 344 343 344 343 341 341 348 351 354
301 311 309 308 311 312 311 306 304 304 299 293 301 297 296 313 317 319 322 324 327 332 334 336 337 338 339 342 343 344 347 345 346 349 347 345 343 342 341 340 340 344 349 351
300 302 308 313 307 310 308 299 294 291 292 292 302 294 299 317 321 322 321 323 328 332 333 334 335 336 338 341 342 344 344 348 348 348 349 348 346 345 344 341 340 343 344 345
293 292 302 309 307 305 305 301 293 287 286 292 294 290 297 307 321 324 325 326 331 332 331 334 336 336 337 341 343 343 344 346 349 349 349 350 349 349 347 343 342 343 348 348
290 294 305 308 311 310 301 300 299 289 289 287 292 294 300 305 305 315 324 328 330 331 332 333 336 337 338 341 343 344 343 345 349 349 350 351 351 350 348 346 346 342 347 352
291 288 301 304 309 310 306 302 293 288 284 283 289 291 296 300 302 304 320 325 330 332 332 332 335 337 338 341 344 346 347 345 349 350 350 349 350 354 351 347 345 348 346 348
292 289 294 299 302 301 300 299 294 295 289 287 285 293 299 301 302 304 317 325 329 331 332 330 335 338 338 340 344 348 348 347 349 352 352 350 348 349 354 349 344 345 348 347
294 291 287 294 300 305 307 298 297 293 288 288 289 294 305 306 306 307 307 326 329 330 332 333 336 337 337 339 342 346 350 349 350 353 353 352 351 349 348 354 349 346 346 350
294 290 283 289 293 298 297 303 299 293 292 290 291 294 304 305 307 310 310 313 325 328 331 335 336 336 337 338 341 344 349 351 351 352 351 351 351 350 348 349 354 351 346 348
297 285 285 284 290 295 294 299 300 299 293 293 294 296 302 304 307 306 309 312 318 329 333 334 335 336 337 338 339 343 345 352 352 352 351 349 351 352 352 350 349 354 352 345
291 282 286 290 294 297 297 300 302 297 298 295 297 297 300 304 309 308 310 312 320 329 332 334 335 336 338 338 339 342 345 348 352 352 351 351 351 353 354 353 351 350 351 353
291 282 286 287 299 301 299 303 303 301 301 298 297 298 302 308 312 312 314 318 321 329 333 336 337 338 338 338 339 341 343 346 351 351 351 353 354 353 353 354 354 352 351 350
287 283 283 284 296 301 296 300 302 302 302 302 296 300 308 311 317 318 310 314 317 326 334 336 337 338 340 340 340 340 342 345 349 351 352 353 354 354 354 355 355 355 354 353
287 283 283 285 292 289 297 303 305 306 306 306 310 310 316 322 324 325 327 319 322 324 323 321 330 335 339 341 341 341 343 343 344 346 351 352 354 354 355 355 355 355 355 356
292 286 282 285 289 295 297 299 300 299 301 305 306 317 322 323 324 322 326 330 327 326 327 328 330 326 327 342 344 343 342 343 343 344 345 351 354 355 355 354 355 355 356 355
293 292 284 285 287 288 294 301 309 308 295 305 309 316 318 315 313 315 325 334 336 331 328 328 327 330 331 329 337 344 343 343 342 344 346 348 352 354 354 355 355 357 356 356
287 289 287 289 291 293 299 302 308 294 297 306 307 309 312 315 317 320 326 328 336 338 336 336 338 334 328 329 332 335 339 344 347 348 347 349 349 352 355 355 356 356 357 357
288 287 286 291 288 288 303 302 294 299 304 304 307 309 308 308 311 318 325 326 328 333 338 343 347 346 348 343 337 341 341 344 344 346 348 350 353 352 353 353 354 355 355 355
286 290 289 290 292 300 305 302 304 304 303 305 305 307 308 308 307 309 321 323 324 327 331 336 341 342 345 345 345 342 344 348 348 346 345 347 350 353 355 355 353 353 355 355
292 295 291 290 295 296 302 304 303 303 304 307 307 304 308 306 307 306 309 322 323 325 327 332 334 340 339 342 343 343 344 346 346 346 348 347 348 349 352 355 357 356 356 356
290 292 289 288 291 296 300 300 301 301 304 307 308 308 308 306 305 305 305 310 323 325 327 329 331 334 337 338 338 339 342 343 343 344 350 351 350 349 351 334 333 353 356 352
293 291 287 286 292 290 293 299 300 300 301 307 306 306 307 307 305 310 310 311 322 324 326 329 330 334 335 336 337 338 340 342 341 341 348 350 351 352 352 335 322 308 305 305

GFSCGP_sfc_thetae_039.txt.gz
Theta_e
300 294 293 295 300 301 302 303 304 309 314 313 315 317 325 327 328 328 328 330 331 332 336 338 339 340 340 338 336 338 339 341 343 341 340 338 337 339 343 345 347 347 349 352
296 293 298 300 301 300 299 298 301 307 311 308 308 314 325 327 327 329 328 329 330 332 334 335 337 339 339 337 337 337 339 340 344 343 344 339 337 338 341 343 345 347 349 351
297 300 303 302 299 298 298 297 299 302 308 309 309 311 317 326 328 330 331 331 332 332 332 334 335 336 338 337 338 338 338 339 344 344 341 341 341 340 339 340 344 345 349 351
299 305 304 300 300 301 294 303 304 303 303 296 305 302 316 322 323 326 328 330 331 332 333 334 335 336 337 338 340 340 339 339 343 343 342 340 338 336 336 338 343 345 349 351
298 301 301 300 301 304 300 304 303 303 298 296 300 298 309 321 319 323 327 329 332 334 334 334 335 337 339 339 340 340 340 340 341 343 343 341 337 336 340 339 340 345 347 351
297 303 304 304 307 307 307 302 300 299 296 292 298 297 295 312 318 323 327 329 332 333 334 336 337 338 339 340 340 341 340 339 340 343 342 341 340 338 339 338 338 342 345 348
296 298 303 307 303 306 305 297 288 288 288 291 298 295 301 312 321 323 325 327 330 330 333 334 334 336 338 339 339 340 340 340 341 342 343 342 341 340 341 340 338 339 343 344
285 289 299 303 303 302 302 299 290 284 287 293 295 292 297 309 322 326 327 328 328 326 331 334 334 335 337 338 339 339 341 340 341 342 343 343 342 342 342 342 341 341 343 346
285 287 296 304 305 307 301 299 300 290 285 288 295 292 299 304 314 321 324 326 325 325 328 333 335 335 336 337 339 340 341 342 342 343 345 345 344 344 343 342 343 342 343 346
290 283 293 300 305 306 305 304 294 289 285 285 288 290 295 299 303 310 321 323 325 326 328 332 335 336 337 338 340 341 342 342 344 345 345 346 346 347 346 345 342 341 343 347
292 289 290 296 296 297 299 299 299 298 289 289 283 292 297 300 302 304 316 322 323 326 329 332 334 336 337 338 341 340 341 341 344 346 346 346 347 348 348 346 344 346 342 345
292 290 287 291 297 299 303 298 294 297 290 286 287 293 301 302 303 306 311 319 325 329 331 333 333 334 336 337 340 341 341 341 343 347 346 347 348 349 350 348 345 344 346 345
292 289 281 287 291 297 294 302 297 296 291 289 293 295 301 301 303 303 305 315 321 328 331 333 333 333 335 337 338 342 343 343 343 346 347 346 346 346 347 351 351 344 342 345
296 289 282 281 285 290 289 294 299 295 289 291 294 298 301 302 301 303 305 310 319 326 330 332 332 331 335 337 337 340 344 346 345 346 347 347 348 347 346 347 350 351 346 344
291 283 283 286 288 288 289 290 294 293 296 294 294 293 299 301 301 307 310 308 309 322 329 331 331 331 334 336 337 340 345 347 347 347 348 348 350 350 349 347 347 350 351 347
291 285 284 283 290 289 289 296 299 299 297 295 295 296 299 305 315 319 311 308 314 323 327 329 332 333 334 335 336 339 343 348 349 348 347 349 348 350 350 349 348 346 349 351
287 285 281 279 291 295 292 295 299 300 300 298 294 298 306 314 319 321 323 312 313 321 326 328 332 334 335 336 337 338 342 346 349 348 348 349 349 348 349 350 350 348 346 347
288 284 281 279 288 289 294 300 301 302 301 303 305 309 315 320 322 325 326 327 320 321 327 331 334 335 336 338 338 338 342 343 347 348 348 349 350 349 349 350 350 351 350 348
290 286 280 279 286 294 296 298 297 295 297 303 304 311 320 324 325 324 326 332 327 322 323 328 335 336 337 338 339 338 340 341 344 346 348 350 351 350 351 350 350 352 352 352
291 290 286 281 288 286 294 300 302 304 292 302 306 305 316 321 315 319 323 328 334 338 333 326 329 333 336 337 338 338 338 339 339 344 347 350 352 352 351 353 353 353 354 353
287 288 284 284 290 292 298 301 303 289 292 302 305 306 305 309 316 322 322 323 330 336 343 343 335 328 326 332 340 338 339 338 341 342 343 346 351 352 354 353 354 354 353 354
286 285 287 291 289 287 301 300 292 295 302 303 305 307 306 307 309 316 321 321 325 329 334 341 341 341 343 342 339 337 342 345 342 341 341 343 345 351 352 353 354 353 353 352
286 288 287 289 290 299 304 302 301 301 299 301 305 306 308 307 309 310 313 320 324 327 330 336 339 339 341 342 341 340 340 345 343 343 343 343 345 346 348 351 351 352 352 352
292 295 289 289 292 294 300 302 300 300 300 301 305 307 307 306 309 312 313 320 322 326 328 332 335 335 334 336 338 339 340 342 343 343 344 343 345 347 348 350 350 350 351 350
291 292 289 289 292 296 299 298 299 300 301 302 302 306 307 310 313 316 316 318 319 320 324 328 330 333 333 334 335 337 340 341 340 341 344 347 345 341 341 321 324 344 348 344
292 290 288 287 293 293 294 298 300 299 300 301 301 305 307 309 310 314 314 315 317 317 319 323 325 328 331 332 333 335 337 338 337 337 337 340 346 345 335 322 319 305 302 302

GFSCGP_sfc_thetae_042.txt.gz
Theta_e
298 292 291 295 298 300 300 301 302 307 312 314 313 315 324 327 326 326 327 326 326 328 333 338 340 339 339 339 337 339 339 340 341 340 339 340 340 343 346 346 349 350 352 355
293 291 296 297 296 298 298 295 297 305 312 310 309 313 324 326 326 327 327 328 328 330 332 335 338 338 337 336 336 338 339 340 343 343 342 342 340 342 345 347 349 350 352 354
292 295 300 298 296 294 295 295 296 300 307 310 307 306 318 325 327 329 330 330 331 331 330 334 336 337 338 337 335 337 338 339 343 343 342 341 341 342 342 344 346 347 351 353
296 302 300 296 295 296 289 299 301 300 299 295 306 297 311 320 322 325 327 329 330 331 333 334 335 336 337 338 338 337 338 339 343 343 342 341 339 338 339 341 346 347 350 352
295 298 299 297 296 299 294 300 299 300 297 295 301 297 304 319 318 321 326 328 330 332 333 333 334 336 338 340 338 339 338 339 341 344 343 342 341 338 339 341 344 347 348 351
295 300 299 301 303 301 303 299 297 297 294 291 296 299 296 312 318 322 326 329 331 332 333 334 336 338 337 340 339 340 338 338 340 343 343 342 341 338 339 339 340 344 347 349
293 296 298 301 297 302 301 296 286 285 286 290 298 298 299 305 323 324 325 328 331 333 333 334 334 335 337 337 338 339 339 337 339 342 343 342 342 340 340 340 340 340 344 347
283 286 296 300 297 297 298 296 287 282 284 290 294 292 298 309 319 328 328 329 331 332 334 334 336 336 336 338 338 339 338 338 339 340 342 342 343 341 342 342 342 342 344 347
283 285 295 298 300 301 297 295 298 289 285 286 294 294 301 306 310 320 324 327 329 331 333 334 336 337 337 338 339 339 339 339 340 340 341 342 342 342 342 343 344 343 345 348
290 283 291 296 300 301 301 302 293 290 286 281 288 289 298 298 303 310 317 322 326 330 330 332 335 336 338 339 340 340 340 339 340 341 342 342 343 343 344 344 343 343 345 349
289 288 287 293 293 294 296 298 298 296 291 289 283 288 300 301 306 306 312 322 325 327 328 328 332 337 337 339 340 340 340 340 341 342 342 343 344 344 345 345 345 344 345 347
292 289 284 287 296 298 295 295 297 295 290 287 288 294 301 303 304 306 308 320 325 328 328 328 330 335 336 336 338 339 340 340 342 343 343 343 345 346 346 346 346 346 345 347
291 286 282 283 290 292 292 297 297 293 297 294 293 293 303 302 302 303 305 308 320 326 328 328 329 332 335 335 337 338 340 340 343 344 344 344 345 346 346 347 347 347 347 346
295 288 284 279 284 287 285 289 296 293 294 295 297 298 302 304 302 304 304 305 311 322 325 327 329 332 335 336 337 339 340 341 342 344 345 344 345 346 348 349 349 346 347 348
290 284 286 287 287 288 287 287 290 289 292 294 295 297 301 303 303 302 305 307 308 314 324 328 330 332 334 336 337 340 341 342 342 343 345 344 346 348 348 350 351 350 347 347
291 284 288 283 287 287 286 290 291 292 294 294 295 294 304 302 312 320 321 321 313 311 314 326 331 333 333 335 336 339 341 342 343 342 344 346 347 347 347 347 347 351 351 349
287 286 283 277 287 288 285 291 296 299 300 298 293 299 308 310 320 320 323 325 326 318 312 317 330 332 333 335 337 338 342 345 344 344 345 347 348 348 348 349 347 347 348 351
286 286 284 280 283 284 293 300 302 299 298 301 302 304 314 316 323 324 324 325 327 328 321 322 331 333 333 336 338 339 343 346 346 345 346 348 349 349 349 350 349 348 348 348
290 287 282 278 281 293 295 297 296 295 296 300 301 304 309 319 322 323 323 325 329 335 324 327 331 333 335 336 338 339 342 346 347 346 347 348 349 348 348 348 349 350 350 348
290 289 284 283 281 287 292 298 302 301 292 301 301 304 304 317 312 317 321 325 330 337 336 329 332 334 334 336 338 339 340 343 345 347 348 350 351 350 349 349 350 352 353 352
285 285 281 283 284 291 296 300 301 292 291 300 303 304 304 305 309 313 323 326 331 336 339 335 334 334 335 337 338 338 340 340 344 348 350 350 351 351 352 352 352 352 353 353
285 284 287 288 290 288 301 298 292 295 299 299 301 304 305 310 316 316 321 324 327 331 336 340 339 339 338 338 338 338 338 342 343 345 348 350 351 352 353 353 354 354 353 352
284 287 285 287 289 295 302 297 299 300 299 299 299 304 309 311 315 316 317 319 322 325 329 336 335 337 340 342 344 343 344 350 344 342 343 344 350 352 353 353 353 353 354 352
290 293 288 290 292 294 299 300 299 300 300 301 302 303 307 311 313 314 313 315 317 320 324 329 334 333 334 338 340 342 344 348 346 344 344 344 344 346 351 353 354 353 352 351
290 292 288 289 293 296 299 298 299 300 302 303 303 303 305 308 310 311 309 310 313 316 320 327 328 331 331 335 337 340 341 344 344 347 351 347 347 346 342 324 328 347 349 344
293 291 288 288 294 294 295 299 301 300 300 302 302 302 304 307 308 311 309 309 310 312 317 324 329 330 331 333 336 338 339 339 340 342 343 347 347 345 333 328 322 304 302 302

GFSCGP_sfc_thetae_045.txt.gz
Theta_e
305 299 298 300 303 303 305 305 304 312 319 319 319 320 327 332 331 328 327 327 327 329 334 339 341 345 347 348 348 349 349 352 351 348 347 346 344 347 351 354 358 360 360 362
299 296 302 302 301 302 301 303 304 311 313 318 318 318 324 331 331 331 328 327 327 330 333 337 341 342 345 347 348 349 349 352 352 349 351 348 350 351 354 358 359 360 360 363
299 300 303 300 299 298 300 299 303 303 308 313 314 313 317 329 332 333 334 332 330 330 331 336 339 342 343 345 347 348 350 352 353 354 351 351 353 353 351 354 357 359 360 363
303 307 301 300 299 299 295 301 302 304 303 303 314 306 315 320 327 330 332 333 333 332 334 336 339 341 342 344 347 350 351 352 352 354 352 354 347 345 349 352 355 358 361 361
301 303 303 301 300 302 298 302 300 300 302 303 305 304 313 320 320 326 331 333 335 336 336 336 338 341 343 345 345 347 351 353 355 356 356 351 352 349 352 351 356 361 361 361
300 303 303 305 307 303 304 301 301 301 299 293 302 303 306 313 320 326 331 333 336 337 338 339 340 342 343 345 346 346 350 352 354 354 355 356 356 353 349 351 350 352 355 357
294 297 302 305 302 305 303 300 294 291 291 290 302 302 305 316 322 326 329 333 336 338 338 339 339 340 342 345 346 348 349 349 352 353 354 355 356 357 355 354 350 352 350 354
289 287 298 300 302 301 301 301 294 288 290 292 301 299 305 315 318 326 331 334 337 337 339 339 340 342 344 345 348 347 348 349 351 352 354 356 357 351 350 354 351 350 349 352
289 289 298 299 301 301 301 298 304 297 298 295 297 302 310 314 316 319 325 332 334 337 338 339 340 342 344 345 347 348 349 350 350 350 353 355 356 356 353 358 356 352 357 352
292 283 293 297 299 303 301 305 297 298 290 289 296 298 299 309 312 317 319 327 333 337 339 340 341 342 345 345 347 349 350 350 351 351 352 353 354 356 356 357 356 357 355 356
293 289 286 292 294 297 300 298 302 302 299 293 291 297 309 309 316 316 318 323 329 335 338 340 343 344 345 345 346 348 348 350 350 351 352 353 353 353 355 354 355 358 356 357
294 290 284 286 293 297 296 295 300 297 296 300 298 298 310 313 315 318 319 321 325 333 337 340 342 343 344 346 347 347 348 347 349 351 352 352 353 354 352 354 354 357 358 358
295 288 281 283 290 296 293 297 298 302 303 300 295 298 312 313 314 316 319 322 327 332 335 338 339 341 345 346 347 347 348 346 347 351 349 350 351 351 354 355 356 357 358 358
296 289 285 281 285 292 290 294 295 297 297 299 301 302 308 312 312 314 315 316 318 327 334 336 337 340 344 346 347 348 348 348 348 348 349 351 352 353 354 357 358 356 359 358
294 285 287 288 289 289 289 289 291 291 297 299 303 305 309 313 315 317 318 318 317 318 326 335 337 339 343 346 347 349 349 350 350 351 350 351 354 356 357 358 359 358 358 359
294 286 288 285 288 289 288 291 292 293 295 299 302 305 314 316 317 315 318 325 326 328 325 329 337 340 341 344 346 347 348 349 352 352 351 354 355 356 357 358 359 359 358 359
290 287 284 281 287 288 286 291 293 295 300 300 299 307 313 315 323 324 326 328 329 331 335 335 329 340 342 344 347 346 348 351 351 352 354 355 356 356 357 359 359 360 359 358
288 286 286 282 284 279 294 304 299 302 302 305 308 310 314 320 328 328 326 325 328 332 334 338 336 333 344 343 344 348 349 350 351 352 353 356 356 356 358 358 358 360 360 360
293 288 283 280 282 287 297 300 301 303 298 304 305 310 316 324 330 329 325 323 327 331 334 341 342 329 344 345 348 349 350 351 351 351 353 355 356 356 357 357 357 357 356 357
292 292 285 283 280 282 294 300 304 305 297 301 305 307 315 323 319 320 319 321 330 336 343 341 337 333 343 346 347 348 349 350 350 352 354 357 359 358 358 359 360 360 359 356
285 285 281 282 281 284 297 302 304 296 295 300 302 305 315 313 315 317 321 322 328 333 341 342 341 343 345 348 348 348 350 351 353 354 356 359 360 360 361 362 362 360 358 360
284 283 282 284 281 280 297 301 296 299 301 302 303 304 313 312 311 313 314 316 322 330 336 344 342 344 347 349 349 349 351 357 359 360 359 360 361 358 357 361 360 360 360 358
285 286 285 286 286 291 298 299 303 303 301 301 301 303 309 309 309 310 309 311 315 324 335 340 344 345 348 348 351 349 351 357 358 359 360 360 361 359 362 360 360 356 359 356
290 293 287 288 292 294 298 301 303 302 301 303 304 304 306 307 309 309 310 310 311 316 328 337 341 342 344 350 352 353 356 354 355 357 358 360 359 358 361 358 358 357 356 356
290 292 288 290 293 295 298 300 302 303 303 303 304 305 304 306 308 310 311 311 313 314 317 331 336 339 340 346 346 348 351 357 353 353 354 355 355 355 358 360 350 358 362 351
293 290 287 287 294 295 296 302 304 302 301 302 302 303 305 305 307 310 311 314 315 315 316 320 329 337 338 340 341 343 343 348 353 357 354 350 350 351 354 343 332 304 304 302

GFSCGP_sfc_thetae_048.txt.gz
Theta_e
308 305 302 305 308 307 307 308 307 313 321 322 323 324 329 335 334 334 336 336 336 336 339 340 342 343 345 347 349 351 352 355 353 349 346 348 349 352 354 356 361 365 364 365
305 300 307 309 307 306 305 306 309 313 317 321 323 323 327 334 334 335 335 335 335 336 337 339 341 343 344 347 350 352 352 355 355 349 351 350 352 351 354 358 363 365 364 366
303 305 307 305 304 303 304 303 305 308 313 316 320 320 323 329 335 336 336 337 337 335 336 338 340 342 344 347 349 351 354 355 356 357 350 353 354 355 355 357 358 362 364 365
305 308 305 303 302 304 300 306 305 304 307 306 316 309 320 324 329 333 336 336 336 337 338 339 341 342 343 347 350 353 355 356 356 358 354 359 350 347 349 354 355 360 365 365
305 306 306 303 304 306 303 307 305 304 303 307 310 309 317 323 322 329 334 337 337 338 338 339 341 344 345 346 349 352 356 358 360 359 360 352 353 346 349 352 360 364 366 365
305 309 307 308 309 308 307 305 305 304 302 295 305 309 312 318 323 326 333 336 338 339 339 340 343 345 346 347 348 351 357 359 359 357 355 359 357 354 349 354 352 353 355 360
301 302 308 309 306 310 307 303 297 295 295 294 305 304 311 319 324 327 330 334 338 341 342 341 341 343 346 347 347 349 355 358 358 356 356 356 358 359 359 357 353 356 350 352
294 292 301 304 305 305 305 304 299 294 294 296 303 299 306 318 323 327 332 334 338 340 342 343 344 344 345 347 348 349 353 356 359 357 361 363 362 353 353 358 354 352 350 351
294 293 302 302 305 306 305 302 307 302 304 300 302 304 309 316 319 322 324 330 333 338 341 343 346 346 346 347 351 353 356 357 356 354 361 363 363 362 356 364 359 354 361 353
296 289 296 298 301 305 305 309 301 301 294 294 300 302 302 309 315 319 322 325 331 338 341 343 345 347 347 348 350 351 352 355 356 355 356 356 358 362 361 361 362 362 358 361
296 292 293 295 295 298 301 301 303 305 302 297 296 301 312 311 314 318 321 325 328 336 340 343 345 347 348 349 349 350 351 353 354 356 358 358 356 357 359 358 359 361 361 361
297 294 290 292 297 299 298 300 303 298 299 302 302 303 314 314 316 317 320 325 329 334 339 342 344 346 347 348 348 349 350 351 353 358 361 358 359 359 356 358 359 362 361 362
297 292 287 289 293 297 294 298 301 303 304 300 299 302 315 316 316 319 318 321 328 331 336 341 342 344 346 348 349 348 350 350 352 355 354 354 355 355 358 359 360 362 362 362
296 292 289 286 290 293 292 295 299 301 297 299 301 303 312 314 315 318 320 323 324 327 333 336 340 343 347 349 355 354 350 351 351 352 352 356 356 357 356 362 363 360 364 362
296 290 291 292 292 292 291 291 294 295 298 296 301 304 309 315 316 319 321 321 322 323 328 335 338 343 350 352 357 356 352 355 354 357 352 356 361 362 363 364 364 362 365 363
296 290 291 289 292 292 289 291 292 294 296 298 300 302 311 318 320 319 320 322 323 327 327 328 336 340 344 348 354 357 358 355 356 360 357 361 364 365 364 366 367 366 365 364
293 292 289 285 290 289 286 290 292 294 298 299 297 305 313 316 319 321 323 324 328 331 334 337 336 337 342 345 352 354 358 358 358 361 361 363 365 364 366 366 367 366 366 365
293 291 291 286 288 280 290 296 297 295 297 302 303 307 311 318 323 332 333 332 333 335 337 339 341 343 339 343 346 352 354 360 360 361 362 364 365 364 366 367 367 368 365 366
296 292 286 284 284 288 291 295 298 295 296 302 306 309 311 318 324 331 333 332 334 337 340 342 344 345 348 342 346 351 351 355 358 360 362 364 365 364 364 365 366 365 364 364
294 295 288 287 280 279 291 292 295 303 294 310 312 314 314 318 316 322 329 331 332 337 340 343 348 350 349 350 344 347 349 352 356 359 362 365 366 366 365 366 367 368 365 363
289 290 284 284 283 286 293 294 296 289 299 309 309 311 320 319 319 320 321 323 327 332 338 346 349 349 349 348 344 352 353 353 357 357 358 363 366 367 368 369 369 368 365 364
286 284 284 285 282 279 295 292 290 302 304 303 304 310 311 311 311 312 314 313 318 325 340 348 345 344 344 344 351 356 356 359 362 363 362 365 368 361 361 369 368 366 366 365
284 288 286 286 288 295 293 293 302 303 302 302 304 309 309 308 308 310 310 311 313 317 330 345 348 346 348 351 353 353 362 362 363 362 365 364 365 363 368 366 366 361 365 360
289 291 287 286 291 290 296 299 303 304 302 304 306 306 308 309 310 310 311 312 313 315 317 334 343 347 350 353 354 355 359 365 363 361 363 363 362 361 363 362 362 360 359 358
289 291 288 288 289 293 298 298 302 303 304 304 305 306 305 309 311 311 312 314 315 316 317 320 331 340 342 346 349 355 359 360 359 360 360 362 361 361 361 363 349 360 366 350
293 290 287 287 292 293 293 300 303 302 301 303 304 305 309 309 309 312 313 316 316 316 318 319 321 330 337 340 344 348 354 359 356 355 355 356 357 359 359 359 352 306 305 301

GFSCGP_sfc_thetae_051.txt.gz
Theta_e
313 309 305 310 312 311 310 308 309 314 321 322 322 324 329 334 335 336 338 338 338 339 342 343 344 344 344 345 346 350 353 363 355 351 350 350 349 353 355 362 363 364 362 363
308 304 310 312 311 309 308 307 309 314 320 324 323 321 326 333 334 337 337 338 337 339 340 342 343 343 343 344 347 354 357 364 358 352 356 355 356 352 353 354 363 364 363 364
307 308 311 309 309 307 307 306 308 311 316 320 320 319 322 330 334 337 338 339 340 338 338 340 341 342 343 344 347 353 360 363 361 360 355 356 357 355 351 358 357 362 364 364
308 311 308 307 306 308 305 309 308 309 312 308 318 307 318 325 329 333 336 337 338 338 340 341 341 342 342 345 348 356 359 363 361 364 353 359 350 346 347 353 355 359 364 364
306 307 306 305 306 309 306 311 308 307 306 308 311 310 315 325 321 329 335 337 338 340 339 340 341 343 344 346 347 351 361 363 363 364 361 353 355 349 349 349 367 369 370 365
308 313 310 309 310 310 311 308 308 307 305 298 306 311 313 318 321 327 333 337 338 339 340 341 343 344 345 346 348 352 360 363 365 364 361 363 357 357 346 351 353 353 356 359
302 305 310 311 307 311 309 306 299 297 297 296 306 307 313 321 326 326 331 335 339 340 340 341 341 343 346 348 350 353 360 362 364 362 359 361 363 362 364 361 350 354 349 351
297 295 303 309 307 307 307 306 300 295 297 299 305 302 309 321 327 325 332 333 338 340 340 341 343 344 348 350 352 354 359 362 364 361 361 361 364 351 348 357 352 350 348 351
296 297 305 306 308 309 307 304 309 303 306 302 305 307 311 317 320 325 327 332 333 338 341 342 343 345 348 350 353 354 359 362 363 356 362 364 363 358 351 357 364 357 362 352
300 295 303 303 306 307 306 311 303 303 296 296 303 306 304 309 314 319 324 327 332 337 340 342 344 345 347 348 351 355 357 361 362 360 362 362 363 365 363 365 368 363 365 366
300 298 298 300 298 299 300 300 304 306 303 297 298 304 315 313 314 316 320 326 330 334 339 342 344 347 348 349 350 351 354 358 359 361 362 360 360 361 364 365 367 368 367 369
299 297 293 296 302 303 302 301 302 298 300 304 303 304 317 317 317 317 320 325 328 332 337 342 344 347 348 349 349 351 351 351 356 359 363 361 361 361 360 362 366 370 369 367
299 295 290 293 298 300 297 300 303 304 304 302 300 302 317 318 317 319 319 321 327 330 334 341 343 345 347 349 351 350 351 351 352 358 359 360 359 361 359 364 364 368 369 370
298 296 294 290 294 296 296 296 299 301 298 300 302 306 312 316 316 318 321 322 324 329 334 337 341 343 346 352 355 355 351 351 351 353 354 358 360 361 360 364 367 367 370 369
298 291 294 295 295 295 294 295 297 297 299 297 302 304 311 315 317 319 322 323 324 325 330 334 339 346 353 354 358 359 354 356 354 356 355 358 363 363 364 363 367 368 369 370
298 291 293 292 295 295 292 295 295 295 296 299 302 303 312 314 316 318 320 323 323 325 328 331 336 341 347 354 358 360 358 358 357 358 356 359 362 364 363 364 367 369 369 370
296 293 291 288 294 293 289 293 294 296 297 296 294 302 308 309 312 315 320 323 323 325 328 331 331 337 341 346 356 357 360 360 360 361 360 362 364 364 365 366 368 368 369 371
295 295 294 289 291 282 294 299 298 296 297 299 300 301 305 308 312 315 324 333 334 335 333 337 338 339 340 343 346 354 357 363 362 361 364 363 366 365 367 368 367 368 369 369
299 296 290 286 287 290 293 295 295 294 293 301 302 304 304 307 310 312 320 336 337 339 340 342 344 344 347 343 345 354 354 363 362 363 364 365 366 366 368 367 368 369 369 369
297 298 290 290 284 281 293 297 301 299 291 302 304 305 305 306 302 310 331 337 337 340 341 343 346 347 348 349 347 345 351 356 361 364 364 368 368 368 368 369 370 372 371 370
291 293 286 289 285 290 297 298 299 286 292 304 308 309 306 306 311 318 328 331 333 338 341 345 348 347 350 353 350 351 351 354 361 364 367 369 369 370 371 372 372 372 371 366
289 288 287 288 285 282 299 298 290 298 298 296 306 311 312 319 323 321 321 323 327 330 334 341 351 352 354 355 357 357 354 359 366 366 366 369 371 367 366 372 372 372 371 370
287 292 289 291 291 299 299 297 299 297 297 298 309 317 321 319 318 317 316 320 322 322 329 334 348 353 350 356 359 359 357 368 366 367 367 368 371 370 370 370 371 366 370 361
291 293 287 287 293 295 296 296 298 299 300 305 306 310 314 313 313 313 314 314 317 319 320 325 337 353 354 358 357 359 372 369 369 367 366 368 368 368 369 365 365 361 359 359
290 291 289 288 291 291 295 298 298 301 305 305 306 308 309 312 313 313 314 314 314 316 318 320 326 334 339 347 353 358 364 367 363 366 366 364 363 362 365 368 359 361 348 345
293 290 286 286 291 293 293 297 302 302 302 305 307 306 307 310 312 315 314 315 315 315 317 317 321 325 326 330 332 336 342 365 362 361 359 359 358 360 361 352 348 309 316 305

GFSCGP_sfc_thetae_057.txt.gz
Theta_e
313 305 302 303 305 306 305 304 302 304 310 318 322 324 327 327 331 333 333 332 333 333 338 338 337 338 342 340 339 342 346 347 351 349 346 345 342 344 347 352 358 356 357 354
305 302 309 311 309 307 305 302 302 307 309 308 319 321 323 328 327 332 329 331 332 334 336 336 334 337 341 340 340 344 348 347 349 347 347 347 346 343 346 352 356 355 354 353
301 305 312 310 307 304 303 300 302 302 306 311 318 314 317 324 329 330 333 332 333 333 332 334 333 335 338 341 343 345 349 347 349 346 346 350 346 347 343 346 351 355 357 356
304 309 307 306 304 304 296 305 306 304 300 294 316 303 313 318 324 329 327 327 329 333 334 334 333 334 336 339 344 346 349 348 348 348 343 345 342 341 343 346 351 354 354 356
300 304 305 304 304 305 301 307 304 304 298 296 299 294 308 319 318 321 328 324 326 329 334 334 334 335 337 341 342 347 349 348 347 349 344 344 342 347 345 349 352 352 356 356
300 306 306 306 309 308 308 303 301 300 296 290 296 294 296 314 318 319 320 322 326 329 335 335 336 337 338 341 342 346 349 346 346 347 349 342 342 343 345 345 346 354 354 356
298 300 304 307 302 304 302 295 287 287 289 289 295 293 295 319 324 322 321 323 329 337 334 335 335 336 336 339 340 344 346 347 346 346 346 349 343 343 343 346 352 351 351 351
288 288 297 305 302 298 298 295 289 284 286 290 297 290 296 307 328 325 325 329 334 333 329 336 336 336 337 339 340 343 343 346 348 345 344 347 348 343 345 348 347 352 352 351
289 291 301 303 306 305 298 294 298 291 295 289 294 298 304 307 314 324 325 329 328 331 335 334 338 337 338 339 340 342 343 344 349 348 344 346 351 343 343 345 346 345 348 352
293 286 296 301 303 305 300 301 292 292 285 285 292 294 296 302 305 321 324 324 330 334 336 337 338 339 339 340 341 343 345 344 348 349 348 344 347 351 344 344 345 346 345 348
292 288 290 296 294 294 295 293 294 293 292 287 287 292 303 306 310 320 323 325 331 330 334 336 337 340 338 341 341 342 346 346 346 347 350 346 344 350 348 344 341 347 345 355
295 289 285 289 297 299 297 292 291 287 288 292 292 295 309 310 313 319 324 326 331 333 334 337 336 338 336 338 341 342 345 347 349 349 348 349 346 346 348 345 343 340 347 349
294 288 283 285 289 294 293 294 290 290 288 287 286 293 307 309 310 314 315 319 329 331 333 326 332 336 336 335 339 343 344 348 350 351 349 349 348 344 346 344 345 341 350 347
299 288 285 282 286 292 290 293 295 289 283 285 289 293 298 305 306 309 314 314 319 331 331 329 329 332 333 335 337 342 344 348 350 351 351 349 348 348 344 345 342 349 347 355
293 285 288 290 292 293 292 292 293 291 290 285 290 293 298 302 304 308 310 311 312 315 328 329 328 329 338 336 339 342 345 346 350 351 351 350 350 349 349 346 345 340 353 349
294 287 288 288 292 292 290 293 294 294 294 293 293 293 297 300 302 302 302 304 305 307 313 316 321 324 337 336 334 334 342 346 347 350 351 352 351 350 349 349 350 345 343 354
291 289 287 283 290 290 286 291 293 294 296 293 289 293 298 298 300 300 301 304 305 306 309 316 319 333 334 332 333 333 333 348 347 347 351 351 351 350 349 350 348 350 345 347
290 289 290 283 286 277 290 297 297 295 296 297 297 297 299 299 301 302 303 304 307 310 313 328 326 340 342 342 337 336 337 339 347 346 348 350 351 351 352 351 349 350 352 348
296 290 285 279 281 286 290 293 293 291 291 298 296 298 300 303 302 300 308 309 310 311 314 326 321 333 341 338 335 336 336 335 334 346 347 349 351 350 352 349 350 349 351 352
294 294 290 286 279 277 287 295 298 296 285 297 299 299 299 299 293 297 305 306 309 311 313 323 324 332 336 341 336 333 334 332 337 340 349 350 351 352 351 351 351 353 350 350
286 287 284 286 285 288 293 296 301 287 286 298 299 298 298 295 296 301 305 306 309 311 313 327 331 332 337 342 344 341 339 334 346 348 351 352 351 351 352 353 353 352 352 351
285 284 285 286 284 280 295 295 289 293 295 296 297 298 298 298 300 301 304 306 309 310 316 328 328 329 335 343 343 343 343 346 350 351 351 351 352 352 354 353 353 353 352 351
283 289 285 285 286 294 296 294 296 296 294 294 296 298 299 298 299 300 302 306 309 318 321 324 323 325 332 336 337 340 342 348 349 353 351 353 355 352 354 353 352 352 353 352
292 293 287 286 292 292 294 295 297 296 296 296 296 298 299 297 300 300 303 306 315 317 317 320 320 326 327 326 329 336 341 344 348 351 354 352 355 353 352 357 355 355 354 354
291 292 289 288 291 293 294 294 295 295 295 297 299 298 298 299 301 303 306 311 314 316 318 318 319 319 319 321 324 329 331 336 340 350 355 354 355 353 355 357 357 357 358 354
292 291 287 285 293 292 292 295 296 294 295 297 297 301 303 305 305 305 307 314 315 315 316 316 316 317 318 318 319 321 323 328 335 343 352 355 354 355 356 355 337 307 310 309

GFSCGP_sfc_thetae_060.txt.gz
Theta_e
306 301 299 303 303 303 302 300 299 304 308 307 321 323 328 332 332 330 329 330 330 333 335 335 336 342 342 342 341 342 342 344 345 343 342 342 341 343 343 350 353 352 351 346
303 299 306 309 307 305 303 300 299 303 307 305 320 321 327 328 330 332 331 331 331 333 334 335 334 337 338 338 339 342 343 343 344 344 343 343 342 341 344 350 352 353 351 349
300 304 310 309 306 304 301 298 300 300 304 319 319 317 320 325 328 333 335 335 334 332 332 334 333 336 337 336 340 342 343 344 345 344 344 346 344 343 342 346 349 352 351 351
303 309 306 305 304 303 294 302 303 303 297 294 314 303 313 321 322 327 323 328 330 333 335 334 333 335 335 336 342 344 343 345 345 343 342 343 340 339 339 343 347 351 353 352
297 301 303 302 303 305 301 305 302 301 295 292 295 292 304 319 318 324 321 324 328 333 334 334 332 336 337 337 340 345 344 344 345 343 340 343 340 341 341 343 346 348 350 352
296 302 301 301 306 307 307 301 297 295 292 287 291 292 300 312 318 323 328 329 331 331 332 334 333 336 337 339 340 346 344 343 345 343 339 340 341 340 342 342 344 347 350 351
294 296 299 303 298 301 300 292 286 286 285 286 290 291 293 317 321 325 326 329 332 332 330 331 332 333 335 337 340 344 344 341 343 344 344 340 341 339 341 342 345 347 349 349
285 286 294 300 298 297 294 292 287 282 283 287 293 289 296 311 324 325 329 330 327 328 330 333 333 333 334 337 338 343 343 342 342 343 343 345 340 340 342 343 347 349 350 351
285 288 298 300 298 300 296 292 294 288 287 287 290 295 301 309 308 323 323 323 324 328 332 335 335 334 335 337 337 340 343 342 342 342 342 343 347 341 340 345 347 347 349 349
289 285 291 298 298 300 298 299 291 288 283 282 288 290 293 301 308 317 321 322 324 332 333 336 335 335 336 338 338 340 342 343 344 343 342 342 344 348 339 341 342 346 346 348
289 286 288 292 289 288 290 289 291 290 289 284 284 289 300 305 309 310 321 324 327 331 333 335 336 337 338 339 339 339 340 341 345 346 344 341 342 345 344 340 341 343 343 345
290 285 283 287 293 295 292 289 287 285 284 287 289 290 304 308 309 309 311 324 329 332 334 336 337 338 337 337 338 339 340 341 342 346 346 344 341 343 346 345 341 340 342 348
291 284 281 284 287 292 290 291 288 286 283 282 283 286 303 307 308 308 308 322 329 332 333 334 331 328 330 335 338 339 341 342 342 344 346 345 342 341 342 346 343 338 339 342
296 284 283 279 283 288 287 291 292 285 280 282 283 286 294 298 300 302 306 312 329 330 331 330 329 329 331 332 333 336 340 344 344 343 344 344 346 343 341 344 345 344 338 339
290 282 284 285 289 290 290 290 291 287 286 283 286 287 290 294 297 299 302 306 319 327 330 321 322 321 324 331 333 336 339 343 346 345 345 344 347 348 344 341 344 342 344 342
290 285 286 285 291 291 289 291 292 291 292 291 291 288 293 295 299 299 303 304 306 309 314 316 321 328 332 331 325 336 338 341 347 346 346 347 345 347 347 344 341 341 340 346
287 286 283 279 288 288 283 288 290 291 292 291 287 291 294 295 298 299 303 307 308 309 311 312 319 333 336 335 335 332 334 338 340 347 348 348 349 347 346 346 343 341 340 338
286 285 284 280 284 275 286 293 294 292 294 294 294 296 298 298 300 303 304 303 304 307 308 309 311 323 334 336 338 336 337 337 336 337 347 350 350 348 348 346 346 345 345 339
289 285 280 281 277 284 289 291 291 290 289 297 295 297 298 299 299 298 303 304 305 306 307 309 312 320 334 333 336 338 338 338 336 335 335 345 351 350 348 346 346 347 348 346
290 289 284 284 278 276 286 292 296 296 283 294 295 294 294 296 289 293 300 303 305 307 307 308 312 324 332 340 337 333 336 338 333 335 335 337 345 350 349 349 348 348 348 348
283 283 281 284 282 286 290 294 297 282 284 293 294 293 293 291 294 297 300 301 304 306 307 310 314 328 332 335 334 331 332 331 334 337 336 337 339 347 351 350 351 349 348 348
284 281 282 282 282 279 294 293 287 290 293 294 293 293 293 294 296 298 299 299 301 304 306 318 319 323 329 335 337 340 337 339 335 334 334 336 340 346 350 350 351 350 349 347
282 284 281 285 282 291 292 291 294 295 293 293 293 293 295 295 295 297 297 298 301 304 307 318 320 319 326 332 331 330 336 343 344 344 345 344 349 350 350 349 349 349 349 349
290 289 286 286 288 289 293 296 296 296 294 294 294 296 297 296 298 297 297 298 301 304 307 316 317 320 322 322 325 325 331 333 333 336 340 349 350 350 349 350 351 350 349 348
288 289 288 288 290 292 293 295 296 296 297 295 296 297 297 300 298 297 298 299 303 305 310 315 317 315 317 318 320 320 323 324 326 328 334 344 350 346 349 350 350 350 352 348
291 288 286 283 289 290 291 295 298 296 295 296 295 296 298 299 301 303 302 302 303 306 312 314 313 316 316 315 315 316 316 318 320 324 330 341 351 350 352 349 338 309 312 316

GFSCGP_sfc_thetae_063.txt.gz
Theta_e
302 297 295 299 303 304 301 298 297 301 306 302 318 319 326 330 332 330 329 329 329 330 333 333 338 340 341 342 340 338 338 342 344 338 337 340 339 341 344 347 351 349 347 344
301 296 304 308 306 303 301 298 297 302 305 302 305 316 325 329 330 330 329 328 329 330 332 332 335 340 340 339 339 338 339 342 344 341 340 342 341 341 343 348 350 350 348 344
298 303 309 308 305 302 298 296 297 299 302 318 317 316 321 326 328 331 332 331 331 330 332 331 334 338 340 338 338 338 339 342 343 342 342 342 342 340 340 345 347 350 350 349
301 307 306 303 303 302 294 302 303 301 296 291 312 300 316 320 321 326 330 331 331 331 333 332 332 335 338 338 340 340 340 342 342 341 342 341 338 336 338 342 346 349 351 349
298 299 302 301 301 303 300 304 301 299 294 290 294 294 300 318 317 321 328 331 332 333 334 332 330 334 337 338 338 340 341 342 343 341 342 341 338 339 339 341 344 346 348 349
295 299 299 301 304 305 306 300 295 292 290 285 290 291 296 313 317 320 326 330 332 334 334 334 333 335 335 337 339 341 341 341 342 341 338 340 340 339 339 338 341 344 347 347
292 294 297 300 295 298 297 291 285 284 284 285 288 290 293 312 320 322 324 328 326 330 332 334 331 333 333 334 338 342 340 340 341 340 338 338 339 339 340 339 340 343 345 347
284 284 293 298 294 293 293 292 286 281 282 286 289 288 294 306 315 323 327 328 330 329 331 333 330 334 333 334 336 341 340 339 341 341 340 337 338 340 339 341 341 344 346 349
284 286 296 298 296 295 293 290 292 286 284 286 288 292 299 309 309 312 323 327 328 331 332 333 332 333 335 335 335 340 340 340 341 341 341 340 338 338 339 341 343 344 346 349
287 284 289 295 296 295 292 296 289 286 282 281 286 288 293 301 303 307 319 324 328 331 332 331 333 332 334 336 337 340 341 340 341 341 342 342 343 340 338 340 343 344 346 347
288 285 288 290 288 287 288 286 285 287 286 283 283 288 300 301 302 303 311 322 327 325 327 331 333 334 334 336 337 338 340 340 340 341 341 341 340 344 341 338 340 342 344 346
289 283 283 285 291 295 292 286 283 282 283 284 286 288 298 301 302 303 320 320 323 328 329 335 336 335 334 335 336 336 339 340 341 341 341 340 339 340 343 341 338 339 340 342
291 283 279 280 285 290 288 289 286 283 280 280 281 285 297 297 298 301 316 325 329 330 329 328 329 330 332 333 334 336 338 339 341 342 341 340 339 338 339 342 342 338 338 340
294 282 281 278 281 286 285 289 289 284 281 281 282 285 290 293 295 298 301 311 323 328 321 323 325 328 331 331 332 334 337 339 340 342 343 341 340 339 339 340 342 342 337 338
288 282 283 284 287 289 288 289 290 285 285 282 285 286 290 292 293 296 303 307 310 314 311 314 321 324 331 332 329 331 335 339 341 340 341 342 343 342 340 339 340 341 341 339
288 283 284 284 289 289 287 290 290 290 290 289 289 287 292 295 297 301 302 304 303 305 308 312 312 314 321 332 335 331 331 337 342 340 339 342 343 344 342 339 338 339 340 341
285 283 281 278 286 286 282 287 289 289 291 289 286 289 296 295 297 298 298 300 301 302 303 305 310 314 314 327 335 334 334 336 341 342 342 342 343 343 344 343 339 338 339 339
285 283 281 278 281 273 284 292 293 291 294 294 294 295 296 296 297 299 299 299 300 302 302 304 305 310 312 321 330 336 337 334 336 342 343 344 344 342 344 345 342 340 339 339
286 283 279 277 274 282 287 289 288 287 288 293 292 293 294 296 297 297 300 300 300 302 303 304 307 307 311 323 336 336 335 337 336 336 340 346 346 346 344 344 344 344 341 340
287 286 282 281 276 275 285 291 294 293 284 292 292 291 292 293 288 293 298 299 300 302 303 305 306 310 317 325 332 334 333 336 337 336 335 336 343 348 347 346 345 346 345 343
279 279 277 283 283 284 290 292 295 282 283 291 293 291 291 289 294 295 297 298 300 301 303 305 306 311 319 324 329 331 333 332 336 337 335 335 336 337 348 349 348 347 346 346
281 278 272 281 279 274 292 291 284 287 291 293 293 293 292 293 294 296 297 297 299 300 301 303 304 307 317 323 325 328 330 335 342 342 334 334 334 339 342 343 348 347 346 344
282 281 277 281 280 288 291 290 295 296 293 293 293 294 294 293 294 297 298 298 299 299 300 302 304 306 315 322 327 326 326 329 333 332 334 339 342 337 338 341 344 347 348 346
289 288 281 283 285 288 290 292 294 297 295 296 296 296 295 293 295 297 300 299 299 300 300 302 304 306 312 321 326 325 324 326 325 326 330 332 334 340 348 348 346 346 347 347
284 290 288 287 288 289 292 293 294 295 298 296 297 297 296 296 296 297 300 302 302 304 304 304 305 306 312 320 321 322 322 319 318 321 325 327 332 339 346 348 346 347 349 346
290 287 284 282 287 287 288 293 296 296 297 297 296 295 297 297 296 298 298 301 301 303 303 304 304 306 312 317 318 318 316 315 314 317 322 324 327 331 339 346 344 310 316 314

GFSCGP_sfc_thetae_066.txt.gz
Theta_e
300 295 293 297 302 303 300 298 297 300 307 304 303 314 324 328 331 330 329 328 328 328 331 334 334 337 338 340 341 341 341 342 343 340 339 341 341 344 346 348 351 352 351 349
297 292 300 304 305 303 300 297 296 301 304 300 303 310 322 325 330 331 330 328 329 328 328 330 334 334 337 339 340 338 340 342 344 342 341 343 342 345 347 349 352 352 351 347
295 301 306 306 304 301 297 295 296 297 302 308 314 310 319 328 329 331 332 331 331 329 327 329 334 334 337 338 339 338 339 342 344 342 343 342 342 343 345 348 349 352 351 349
300 305 305 302 302 302 292 302 302 300 295 289 308 295 310 321 322 326 328 329 329 329 331 330 333 336 337 338 339 340 339 342 344 342 342 341 340 338 342 345 349 352 354 351
298 301 302 300 301 303 300 303 301 299 293 289 293 298 297 316 316 321 327 329 330 331 331 331 332 337 339 339 339 339 339 342 344 343 343 341 340 340 342 345 348 350 352 352
297 298 301 303 305 304 304 298 293 290 289 285 290 296 291 309 315 318 326 330 331 332 331 333 333 337 338 340 339 339 338 340 343 343 342 342 340 340 340 341 344 346 350 352
290 293 296 299 294 297 296 291 284 283 283 284 287 289 291 302 306 312 321 328 333 333 333 332 330 332 336 337 338 339 339 338 341 342 341 342 342 342 341 341 342 344 347 350
284 284 291 296 292 291 292 291 285 281 281 285 289 287 294 306 308 309 322 327 332 333 334 334 332 332 334 336 337 339 338 338 341 341 340 340 342 342 343 343 343 344 347 350
283 285 294 296 295 294 291 288 291 285 283 284 287 293 300 305 304 305 308 323 328 330 332 333 334 333 334 334 335 338 339 339 340 341 341 339 340 341 341 344 345 345 348 350
286 284 289 294 295 293 291 292 287 285 282 281 285 290 292 297 299 302 306 315 324 328 328 331 334 332 334 335 336 339 340 340 341 342 342 341 339 340 341 343 344 346 348 351
286 285 286 289 287 285 288 286 284 286 284 283 282 288 296 297 299 298 318 325 319 329 331 333 334 333 335 336 335 338 340 340 340 342 342 342 341 340 340 341 344 346 349 349
288 285 283 283 290 292 290 286 283 284 283 282 285 287 295 294 296 301 313 326 326 327 330 334 335 335 334 335 336 336 339 340 341 341 342 341 342 344 341 340 341 344 346 349
289 282 278 281 284 288 287 288 283 282 280 280 282 284 295 295 297 303 310 310 311 319 324 325 329 332 334 335 336 337 338 340 341 342 341 341 340 341 343 343 341 342 343 344
293 282 281 279 281 285 285 288 288 283 281 281 282 286 290 292 294 300 303 306 308 309 310 314 318 323 332 334 335 337 338 339 341 341 341 340 340 340 341 343 344 341 342 343
287 282 282 284 288 288 287 288 289 285 285 283 285 287 290 293 295 298 300 302 303 303 306 308 310 313 314 324 336 337 335 339 340 341 341 341 341 341 341 341 343 344 342 342
286 283 284 282 288 288 286 289 290 289 289 288 288 288 294 296 299 298 298 300 300 301 302 305 307 310 311 317 321 334 335 334 340 339 340 343 344 343 341 341 341 342 344 343
284 282 279 276 285 284 281 286 288 289 290 289 285 290 295 294 295 296 297 298 299 300 302 302 304 307 309 313 320 328 335 338 336 339 341 342 344 344 344 343 341 340 341 343
283 281 280 277 278 272 282 291 291 291 292 292 293 292 293 293 295 296 299 297 297 298 300 301 303 305 307 311 320 331 337 337 337 339 342 342 342 343 344 345 342 340 340 340
284 282 278 275 272 281 286 288 287 286 287 291 290 291 292 293 294 296 299 298 297 298 300 301 303 305 307 311 321 330 334 336 338 338 340 345 344 343 343 344 344 343 341 340
286 284 281 276 276 275 284 290 293 292 284 290 291 291 291 291 285 292 296 297 298 299 300 301 303 304 305 308 318 325 327 334 334 338 339 340 342 346 344 343 345 346 346 343
277 278 277 280 279 283 289 291 294 281 282 291 292 292 291 289 292 294 296 297 298 299 301 303 303 302 304 307 312 319 323 327 337 341 340 338 338 339 348 348 347 347 347 347
276 273 272 281 278 273 292 290 284 287 290 292 292 292 292 293 294 295 296 296 297 299 302 303 302 302 304 306 309 315 320 328 336 335 336 337 338 337 341 344 349 348 346 345
279 280 276 278 278 287 291 289 292 293 292 293 294 294 294 294 294 295 295 296 298 301 303 302 301 302 304 306 308 311 319 331 331 331 331 331 335 340 340 339 340 347 348 346
288 286 279 281 284 287 289 292 294 294 293 295 296 296 296 294 295 295 296 296 299 301 302 303 302 302 303 306 308 311 317 327 327 326 327 330 330 331 336 343 340 340 346 346
284 288 288 287 287 288 290 292 294 294 295 296 298 297 295 295 296 296 297 297 299 300 302 303 302 302 304 307 308 310 314 323 322 321 323 327 329 330 332 339 344 345 343 343
288 286 283 281 287 287 288 293 295 294 295 297 297 295 297 297 296 296 296 297 298 299 301 302 302 302 303 305 307 310 314 320 318 317 319 322 326 327 330 331 336 320 317 310

GFSCGP_sfc_thetae_069.txt.gz
Theta_e
305 304 303 310 313 309 308 306 305 307 315 314 308 310 320 333 334 331 331 332 334 335 340 343 341 346 345 345 347 349 351 354 353 350 349 351 350 353 354 356 359 359 360 361
301 299 306 311 312 308 308 306 305 307 309 309 308 311 327 329 333 334 332 331 333 335 338 339 342 343 344 344 346 349 351 354 354 351 353 353 354 354 358 358 360 360 361 361
299 301 307 309 308 307 307 306 305 304 308 314 319 316 323 329 332 335 336 334 334 334 335 337 340 341 343 344 346 348 351 354 355 354 353 354 355 356 354 355 356 359 361 356
304 307 306 309 308 309 305 308 307 305 305 300 313 302 316 325 326 331 335 335 334 335 336 337 339 340 341 344 347 350 351 353 355 356 353 353 350 348 351 354 355 358 361 359
303 306 305 307 309 311 308 309 308 306 304 301 303 305 310 321 322 325 333 335 335 336 336 336 338 340 341 344 346 348 351 352 356 356 356 352 353 352 354 355 359 361 363 361
304 306 310 311 310 310 311 304 302 301 302 297 301 304 302 309 312 314 329 335 336 337 337 338 340 342 342 345 346 347 349 352 354 355 354 354 354 354 351 353 354 355 358 366
298 299 302 306 304 307 307 303 296 294 294 296 299 300 303 308 310 312 316 325 337 338 338 337 338 339 342 344 345 346 347 349 352 353 353 354 354 356 356 355 353 356 354 357
296 293 298 301 301 301 303 303 297 291 292 296 298 298 303 307 312 318 325 327 335 338 339 338 339 340 342 344 346 346 347 348 350 351 354 356 356 352 352 356 353 353 354 356
293 292 298 299 300 301 299 298 303 296 295 296 298 302 305 307 310 317 327 329 330 337 339 339 339 341 342 344 346 347 348 348 349 349 353 354 354 355 354 357 357 354 359 356
295 292 296 297 300 301 301 300 297 298 291 291 295 298 298 300 306 315 322 327 328 334 339 340 340 340 342 344 346 347 348 348 349 350 351 351 352 354 355 356 357 358 358 360
295 295 294 297 294 293 298 297 297 299 297 294 293 295 299 302 310 310 311 320 330 334 335 340 342 342 343 343 344 345 347 348 348 349 352 351 350 351 353 353 355 358 360 361
295 294 290 292 296 297 297 294 294 297 294 295 299 293 302 307 310 308 307 311 316 325 331 337 340 340 341 342 342 343 345 345 346 350 352 350 352 351 350 351 353 357 358 360
297 291 289 290 294 296 294 295 294 292 295 292 295 292 302 308 307 307 304 304 306 310 312 317 320 323 337 341 342 342 343 345 345 347 347 349 349 350 350 351 352 353 356 358
298 292 291 290 290 294 292 293 295 294 294 291 293 294 299 303 303 304 305 304 304 305 306 308 309 314 319 326 336 342 343 344 346 346 344 347 346 349 351 355 354 352 355 355
298 292 292 293 293 293 293 292 293 293 293 292 293 294 298 302 303 303 305 306 305 303 304 305 305 308 310 314 323 334 340 341 345 347 347 347 350 350 347 349 356 354 353 354
296 292 293 290 292 292 291 292 292 292 293 293 294 294 300 302 304 304 304 304 304 304 304 304 304 306 307 310 315 325 334 339 342 342 346 351 353 354 353 353 352 356 354 354
294 293 290 287 290 290 287 291 292 293 296 295 293 296 300 300 300 301 302 304 303 303 304 305 304 304 306 308 310 320 331 339 341 342 342 348 351 352 353 352 353 353 353 355
293 293 292 288 288 281 290 295 294 295 295 297 298 297 297 298 299 301 304 303 303 303 303 305 306 306 307 307 309 315 325 330 336 344 342 346 349 350 353 352 352 352 352 353
295 294 289 287 285 287 290 292 292 292 291 294 294 296 297 298 300 302 303 303 302 303 304 305 307 309 310 310 309 309 316 324 328 337 344 347 349 349 350 350 353 352 350 350
294 295 293 289 284 282 291 293 296 296 289 294 295 295 295 296 294 299 302 302 302 303 304 305 307 310 310 311 310 309 311 317 323 329 339 343 347 346 351 351 352 353 353 351
290 291 289 289 287 290 295 295 298 288 290 295 295 295 295 293 295 298 301 301 303 303 304 306 307 309 310 311 311 309 309 310 319 326 338 339 341 346 346 348 355 353 353 353
288 288 287 287 284 283 297 294 291 294 296 296 296 296 295 297 298 299 300 301 302 302 303 305 307 308 310 311 311 311 310 311 317 323 333 334 337 340 344 348 347 354 355 354
286 291 289 290 291 295 298 297 299 298 296 297 297 296 297 297 297 299 299 300 301 302 303 305 305 308 309 311 311 311 313 314 314 322 330 330 333 337 340 345 347 346 347 351
293 293 291 289 294 294 297 299 299 300 298 299 299 298 298 298 298 298 299 298 299 299 300 302 304 305 306 309 310 311 312 315 313 316 325 328 328 331 336 338 342 344 344 346
294 294 293 292 295 295 297 299 300 300 301 300 301 301 301 299 298 299 299 298 298 298 298 299 301 303 305 308 308 310 310 312 314 312 320 324 325 328 332 335 337 343 348 344
295 294 292 293 298 298 297 300 301 300 300 302 302 302 303 302 301 300 299 299 298 299 300 300 301 302 303 305 306 308 311 312 314 313 316 320 321 324 328 332 332 318 315 313

GFSCGP_sfc_thetae_072.txt.gz
Theta_e
310 307 304 309 313 314 313 314 313 314 324 321 317 315 327 335 337 335 330 335 337 337 341 343 348 348 350 349 348 351 352 357 355 353 352 352 352 355 356 359 361 361 362 364
305 303 310 313 314 314 313 312 312 313 315 316 313 312 325 329 334 337 332 334 337 338 340 342 347 348 348 347 346 350 352 357 356 352 354 354 355 355 357 359 362 360 361 363
304 306 311 312 314 312 312 311 313 311 313 315 315 314 324 329 333 336 338 339 340 339 338 342 345 346 346 346 346 350 354 357 357 356 356 359 359 362 364 359 357 360 363 363
305 309 307 310 311 313 308 314 312 311 309 306 314 307 318 328 329 333 333 336 337 340 341 342 344 345 345 346 349 351 356 358 358 360 357 359 351 348 351 355 357 360 363 361
305 305 306 308 311 315 311 315 313 312 311 309 307 308 315 323 325 327 333 336 338 337 337 342 343 346 346 347 348 351 357 359 359 361 360 356 357 352 354 354 365 363 366 362
309 312 310 312 316 316 316 312 311 311 310 302 308 307 309 314 314 319 333 338 340 341 339 342 345 346 346 348 349 351 355 359 360 361 362 360 358 357 351 354 366 354 360 359
305 308 312 315 312 316 314 309 300 298 299 300 309 306 308 313 316 320 322 325 341 342 342 342 343 344 345 346 349 350 354 356 359 359 360 360 360 361 359 363 351 357 355 354
299 297 307 311 312 310 310 309 302 295 297 300 307 302 305 315 323 331 333 330 332 342 343 343 344 345 346 346 349 350 353 355 357 358 360 362 362 356 356 357 352 353 353 356
301 298 303 304 306 308 309 306 311 303 304 302 304 307 310 314 322 324 329 332 333 341 343 342 344 346 347 348 349 352 353 356 357 356 359 360 361 359 356 359 359 355 359 356
302 297 302 302 305 306 307 311 302 303 297 296 301 303 302 309 317 321 321 324 334 338 342 344 343 346 347 348 350 352 353 356 357 357 357 358 359 361 360 360 360 359 357 361
302 302 299 303 301 302 303 303 305 306 304 299 298 300 306 312 315 316 317 316 321 327 334 335 342 345 347 349 350 350 352 354 355 357 358 357 357 358 360 359 360 360 360 361
301 301 297 299 301 302 303 303 305 300 301 303 303 298 311 315 313 310 310 311 312 316 318 321 323 324 336 346 348 349 351 351 354 355 357 356 357 358 356 358 359 360 360 361
300 298 294 295 299 301 301 302 303 304 305 303 299 297 313 314 316 307 305 306 308 309 310 310 310 313 318 329 335 346 348 349 350 353 354 354 354 355 356 356 358 359 359 360
303 298 295 293 297 301 298 298 301 303 300 302 303 300 307 310 311 312 306 304 305 307 308 308 308 311 315 317 320 333 343 349 350 351 352 353 353 354 355 357 358 358 359 359
304 298 298 297 297 298 298 297 298 300 301 300 302 302 306 308 309 310 311 311 305 305 306 307 307 308 312 313 314 321 332 340 348 349 351 352 355 356 356 357 359 359 359 359
303 298 300 296 297 297 296 297 297 297 298 301 303 301 307 309 310 309 310 310 310 308 307 308 309 309 308 310 312 315 319 331 338 347 348 351 356 357 357 358 356 359 359 359
300 300 297 294 296 295 292 297 297 298 300 301 299 303 305 305 305 306 307 309 309 309 310 311 308 308 311 312 314 312 316 325 329 333 347 350 351 354 357 358 358 357 356 359
298 298 298 297 294 286 296 300 300 299 300 303 303 303 303 304 306 307 310 308 308 308 309 310 311 312 312 313 312 316 316 319 322 328 336 345 349 351 354 358 356 358 358 357
302 299 294 292 291 293 294 297 297 298 297 301 301 301 302 303 305 308 308 308 307 308 309 310 311 313 316 317 315 315 313 313 315 321 327 336 338 349 351 352 356 356 356 357
298 302 297 293 289 287 297 298 301 301 294 301 301 301 301 303 298 304 307 307 307 309 310 310 311 312 314 317 318 317 317 314 313 315 320 327 339 339 344 352 357 362 359 357
296 297 293 293 292 295 299 299 302 291 295 302 301 301 301 300 302 304 306 307 308 309 309 310 311 311 314 316 317 316 318 318 318 317 318 323 332 337 336 344 356 356 360 361
293 293 294 295 291 288 302 299 296 301 302 301 301 302 301 302 302 303 304 305 307 307 308 309 309 310 313 315 315 315 316 319 320 320 316 317 322 332 331 340 339 351 359 359
292 297 298 296 298 301 305 302 304 302 302 301 302 301 302 300 302 303 303 304 305 306 306 306 306 307 309 313 314 313 316 318 318 318 320 317 321 327 333 336 339 337 349 351
298 300 297 295 299 300 303 304 304 303 303 303 303 302 302 301 303 303 303 304 304 305 305 306 304 305 306 310 312 313 315 316 316 316 318 320 316 320 328 329 332 335 335 343
301 300 298 298 300 300 302 304 305 304 304 304 303 303 303 303 303 303 304 304 305 306 305 305 303 303 305 307 308 309 311 313 312 314 315 318 320 321 324 328 329 333 336 334
302 300 298 298 303 303 301 306 306 304 304 304 304 304 305 304 304 305 305 306 305 305 304 303 305 303 304 305 306 309 309 308 309 311 313 315 318 320 322 323 325 317 315 314

GFSCGP_sfc_thetae_075.txt.gz
Theta_e
312 308 308 311 313 313 314 314 313 319 325 323 322 326 331 337 335 335 332 332 335 334 339 342 342 346 346 348 348 351 352 359 355 352 350 351 352 358 359 362 362 361 361 361
309 305 313 314 313 312 313 312 315 318 323 323 319 317 329 332 336 337 333 331 335 336 337 341 341 346 345 348 348 351 353 359 356 354 359 353 354 356 357 361 361 361 361 362
306 308 313 311 311 311 314 313 315 314 316 321 317 315 322 327 333 337 336 338 338 336 336 338 341 344 345 347 346 350 354 358 359 361 356 356 357 362 358 359 355 359 361 360
308 311 309 310 311 315 310 315 316 314 313 308 317 306 319 324 326 335 334 336 336 338 338 339 340 343 344 345 345 350 354 358 358 360 360 365 352 351 350 357 359 358 363 361
306 307 307 308 312 315 311 315 314 316 312 312 312 310 312 326 324 331 334 337 339 339 339 338 341 344 344 345 346 350 356 360 363 362 365 357 357 351 353 356 359 366 364 362
310 313 311 310 314 317 317 315 314 314 312 304 310 309 314 318 322 331 334 335 338 338 341 340 343 344 344 345 346 351 358 361 361 360 361 362 360 359 357 351 354 354 354 357
308 309 312 313 311 317 316 312 303 301 302 302 311 308 312 318 321 323 331 332 340 339 341 342 340 344 342 345 344 349 356 359 360 360 360 360 360 360 361 359 353 351 359 352
302 300 308 312 313 312 313 311 303 297 298 302 311 305 310 322 330 332 333 333 340 340 341 342 344 343 343 346 345 348 353 359 360 360 363 364 364 356 354 358 356 354 355 352
303 303 312 312 316 316 311 308 313 306 308 304 307 310 316 324 325 328 332 334 331 339 338 342 342 346 343 345 348 349 356 358 360 359 361 363 365 362 358 367 360 356 362 354
306 300 307 308 310 313 310 315 306 307 299 298 304 306 307 317 320 324 324 328 333 333 333 332 337 343 345 345 347 348 352 356 359 359 360 360 362 363 362 360 362 362 360 360
306 306 303 306 305 305 307 307 310 310 306 301 300 303 316 319 321 320 315 319 321 322 326 329 328 333 338 339 347 348 351 354 357 358 360 360 360 361 362 359 360 362 360 362
305 304 301 302 308 308 308 308 309 303 303 306 304 300 318 319 318 315 310 312 316 314 313 321 323 326 325 331 336 341 348 351 354 357 361 359 360 361 359 360 361 364 365 361
306 302 297 299 303 307 304 307 308 309 308 305 301 302 318 318 313 311 309 309 310 312 313 311 317 315 315 323 333 337 342 346 350 355 355 357 357 359 359 360 361 365 365 364
308 303 300 296 300 304 302 304 306 306 303 304 305 307 311 315 310 306 307 308 311 310 310 311 309 313 314 316 319 329 333 344 345 350 353 355 357 358 358 362 365 361 366 364
307 297 301 301 301 303 304 303 303 303 305 303 306 308 311 313 315 312 309 308 308 308 309 310 310 311 313 317 317 318 326 334 340 344 349 354 357 360 358 361 365 364 365 365
307 300 300 297 300 300 299 301 301 303 304 305 307 307 313 314 315 314 315 313 309 308 310 310 310 312 313 314 318 319 320 325 332 334 343 353 355 358 361 362 362 365 365 367
304 302 300 295 299 297 294 299 301 302 304 306 304 308 312 311 311 311 313 313 312 312 311 312 313 314 315 315 317 318 321 322 324 328 331 338 347 354 355 360 361 362 362 365
303 303 302 297 300 289 298 303 303 301 304 308 308 309 311 311 311 312 314 312 311 312 312 314 314 315 315 317 318 320 321 322 321 323 322 327 332 342 349 356 357 360 360 360
304 303 298 295 296 298 299 300 299 300 300 305 307 307 308 308 310 310 311 311 311 311 313 314 315 315 318 319 322 323 321 321 322 320 321 323 326 333 339 340 352 362 360 358
302 304 299 297 292 291 299 303 305 305 297 305 307 305 305 306 301 307 310 310 310 312 313 313 314 316 316 319 320 320 320 322 322 320 322 323 323 328 338 339 337 349 360 358
298 299 296 297 295 299 304 303 305 293 298 306 306 305 305 305 307 308 309 309 311 312 312 313 314 314 316 318 318 319 320 320 322 324 324 325 326 325 329 338 339 341 348 357
298 297 297 298 295 292 306 303 298 306 308 307 306 306 305 306 306 306 307 307 308 309 310 311 311 311 313 315 315 316 318 321 322 322 322 324 325 326 322 331 338 338 342 344
296 301 299 300 300 307 308 306 310 309 308 305 306 305 304 303 305 305 306 307 307 308 309 310 310 310 312 313 314 313 316 319 320 320 320 321 323 324 327 325 332 331 341 338
302 304 300 299 303 304 307 307 307 306 306 306 306 305 305 305 306 306 306 306 307 308 309 310 309 309 310 312 313 313 314 316 315 315 316 318 319 320 323 324 322 324 326 331
303 304 301 301 303 304 306 307 307 306 307 306 306 306 306 306 306 307 308 308 307 308 309 308 308 308 309 311 311 312 313 313 312 312 312 314 316 318 322 326 324 323 327 326
306 304 302 300 306 306 306 309 309 307 306 307 306 306 307 307 306 307 308 308 308 308 308 307 308 307 309 309 309 310 310 310 309 309 309 311 312 315 317 320 323 313 311 309

GFSCGP_sfc_thetae_078.txt.gz
Theta_e
313 308 305 310 312 313 314 313 312 321 323 322 326 324 330 333 334 332 332 333 332 333 339 340 339 342 340 348 350 354 359 361 358 356 354 350 354 357 358 366 361 358 354 368
309 304 310 314 314 311 311 310 312 318 323 326 321 320 327 331 332 333 333 333 333 334 335 339 340 343 344 347 350 355 359 361 361 357 361 351 361 361 355 359 364 360 361 368
305 307 312 312 311 309 309 309 312 315 317 323 320 319 323 332 333 336 336 335 336 335 335 338 338 343 344 344 349 353 359 360 360 365 363 357 348 351 346 349 360 363 364 365
307 311 309 309 309 310 306 314 315 316 314 308 319 307 320 326 328 332 332 333 335 338 336 337 341 343 345 344 350 354 358 360 358 365 361 365 357 350 358 358 360 362 365 363
305 307 307 306 309 312 311 316 314 315 313 311 311 308 315 321 325 331 333 333 336 338 338 337 338 344 346 345 347 353 356 361 359 362 367 361 362 357 354 356 354 362 367 364
308 312 310 309 312 315 317 314 312 313 312 303 309 308 315 318 317 326 335 335 337 338 338 341 341 345 345 345 344 351 355 360 363 360 363 364 360 347 344 355 350 360 359 363
308 309 310 312 308 314 314 311 302 300 302 301 310 308 314 321 324 323 331 336 338 341 340 339 339 343 344 340 343 352 356 358 360 359 360 362 362 363 352 353 348 358 352 357
302 299 309 312 308 308 311 310 303 296 297 301 309 304 312 324 329 330 332 335 340 340 340 341 342 345 342 342 344 352 356 357 360 360 362 363 365 360 356 350 358 353 347 355
302 303 311 312 312 312 310 307 313 306 307 302 306 313 321 325 327 331 332 330 332 334 333 337 344 346 343 345 343 352 357 359 361 360 363 363 363 362 363 363 367 356 352 359
306 301 309 310 312 314 310 314 305 307 298 297 303 307 310 318 321 325 323 322 323 325 328 331 335 339 343 347 345 352 358 359 360 360 362 362 363 365 365 367 366 369 351 350
307 306 304 309 307 307 309 308 308 308 306 300 298 302 320 320 322 319 318 317 314 318 320 326 326 331 337 342 345 342 355 358 360 361 361 361 362 363 365 364 368 367 369 351
307 304 301 303 309 311 311 309 308 303 303 306 301 301 321 320 318 316 315 316 313 311 315 319 320 321 323 331 336 335 344 344 358 360 362 361 363 363 363 363 364 369 367 368
307 301 298 300 304 307 304 307 308 308 308 306 298 303 319 317 315 313 313 314 313 310 311 315 319 318 319 319 325 333 335 336 342 350 359 360 360 362 362 364 364 366 367 367
309 301 300 294 298 304 302 305 307 306 301 303 303 308 312 313 312 311 311 312 312 312 312 313 315 317 319 317 319 323 332 332 336 341 346 352 359 359 360 364 364 364 367 365
305 298 301 303 303 302 304 303 305 303 305 303 306 309 312 313 312 311 312 312 311 310 311 313 313 316 317 318 319 318 320 328 333 335 341 342 343 360 368 367 365 366 364 364
306 300 303 299 303 301 300 304 303 304 304 305 308 308 316 315 314 312 312 312 311 312 311 312 314 315 316 317 320 322 320 320 327 329 333 336 345 351 355 362 363 367 364 365
303 301 299 296 301 300 295 300 301 302 305 308 304 309 313 312 313 314 314 313 312 312 313 313 314 315 318 317 320 320 324 325 323 323 325 329 335 340 345 355 361 364 363 365
303 304 301 297 298 289 300 306 304 302 305 310 312 311 313 312 313 315 314 312 312 312 313 314 314 315 318 319 319 323 323 326 325 326 324 325 326 331 340 346 343 349 362 362
304 302 298 295 291 297 300 302 302 300 301 310 310 311 312 312 312 310 311 312 312 312 313 314 314 315 320 321 323 324 323 326 325 325 327 326 324 323 329 339 341 343 348 356
303 304 300 298 293 290 299 303 306 305 297 308 310 309 309 309 304 306 311 311 312 313 313 313 315 316 317 319 319 319 322 324 323 324 326 328 329 327 326 327 337 341 345 347
297 298 296 296 295 298 305 304 306 294 297 308 309 309 307 305 308 310 311 311 312 312 312 313 313 313 314 316 316 317 319 319 322 323 324 326 327 327 330 332 330 337 338 342
298 297 297 297 295 293 307 304 298 306 309 307 308 306 306 308 308 308 309 309 309 309 310 311 311 311 313 314 314 314 317 320 321 322 322 324 325 324 323 327 330 330 333 335
297 301 301 300 302 310 309 308 312 311 309 308 308 307 307 305 306 307 307 308 308 308 310 310 310 311 312 314 313 312 316 317 318 318 318 319 321 322 324 325 328 327 328 332
303 305 302 302 305 306 309 309 310 309 310 309 309 307 306 305 306 306 307 307 308 309 309 309 308 308 310 313 313 312 315 317 315 315 315 316 316 316 318 320 322 322 324 322
305 305 301 301 304 305 306 308 308 307 308 308 307 307 306 307 306 307 307 308 308 308 309 309 307 308 308 311 311 311 313 313 309 311 311 312 313 314 316 319 320 321 325 324
306 303 303 301 307 307 307 309 310 308 306 307 307 306 308 308 307 308 307 309 308 308 309 308 308 307 308 308 309 311 312 310 306 305 306 307 308 310 311 312 314 312 309 306

GFSCGP_sfc_thetae_081.txt.gz
Theta_e
308 301 298 302 306 307 308 308 309 318 323 320 317 316 321 328 329 330 329 329 329 330 334 337 336 339 339 344 341 346 346 349 344 345 346 345 342 344 347 349 348 352 347 355
302 298 306 309 309 308 307 303 306 317 325 322 317 315 318 320 326 329 328 329 330 330 332 336 334 337 340 341 341 347 348 348 345 344 347 345 344 349 349 351 351 353 350 354
300 304 310 307 307 306 304 301 303 312 318 323 320 318 317 323 331 330 331 333 332 332 332 333 334 334 340 341 343 347 348 348 347 346 349 347 347 345 340 343 347 354 354 355
302 307 307 304 304 305 297 307 308 315 311 306 320 303 316 325 325 327 328 330 331 332 334 334 335 337 339 341 345 347 350 349 347 351 348 345 342 342 343 343 347 354 356 353
300 302 302 302 304 307 303 308 309 313 307 307 311 307 312 323 321 324 329 330 332 333 335 334 337 339 341 343 345 347 351 349 344 349 350 346 342 348 345 347 351 351 352 354
304 309 305 304 307 308 310 307 308 310 307 300 303 304 308 318 321 326 327 327 333 335 336 334 338 340 340 343 344 346 350 348 347 348 351 347 342 335 336 342 343 348 350 354
303 303 305 307 301 306 304 300 294 292 294 298 305 304 309 320 327 325 325 325 328 335 335 334 336 340 341 340 343 345 346 349 351 348 350 349 344 339 335 343 344 345 348 349
295 294 304 306 302 300 301 299 294 289 291 295 301 303 308 320 323 324 323 329 330 332 336 337 337 339 340 340 342 344 344 347 350 348 349 349 349 346 345 344 345 347 344 349
297 298 308 308 306 303 301 299 304 297 296 293 302 310 317 318 320 323 323 327 327 333 334 337 338 336 341 339 340 344 346 348 350 349 351 351 349 349 345 341 344 349 345 352
299 294 303 309 308 306 301 307 297 297 291 291 304 306 308 315 317 314 312 314 319 322 331 332 332 333 339 342 342 347 349 349 351 352 354 354 353 352 352 351 350 348 348 348
299 297 301 305 299 298 302 300 302 299 297 292 295 299 315 315 313 309 309 310 314 316 319 324 328 329 331 336 340 341 341 344 348 352 352 352 353 354 352 352 352 349 347 343
302 296 294 298 305 306 302 302 303 294 293 299 301 300 318 315 313 310 309 309 311 315 316 318 319 322 325 331 334 335 337 338 338 341 347 352 354 354 353 352 352 353 349 347
300 294 290 296 300 300 297 302 298 298 297 297 296 299 313 313 312 311 307 309 309 310 313 315 316 317 320 324 328 333 333 335 337 338 341 345 349 353 351 353 354 355 350 345
307 296 292 291 296 298 295 299 300 296 291 299 301 303 307 307 307 307 308 310 309 309 310 313 314 317 318 320 322 323 328 333 335 337 335 339 339 341 346 353 356 356 356 353
298 292 295 299 302 300 298 299 301 297 297 299 304 305 306 307 306 308 309 309 309 310 310 311 313 315 319 319 318 319 322 324 329 332 332 335 341 337 339 343 350 354 356 356
298 293 297 294 300 300 297 300 302 301 306 307 308 305 311 309 309 309 309 309 307 306 310 312 313 314 316 318 318 319 318 323 324 323 325 330 334 340 343 344 346 349 351 354
296 295 293 289 299 299 292 297 298 305 308 306 302 305 309 307 308 308 308 309 308 308 308 309 310 311 312 313 317 318 321 322 322 322 322 324 328 329 335 341 340 338 347 350
296 296 294 289 294 285 296 303 302 300 308 309 308 308 310 311 310 309 309 307 308 309 309 308 309 312 313 314 316 318 322 323 322 322 323 324 325 324 327 335 336 335 340 344
297 295 291 288 287 293 298 301 298 297 302 310 308 308 308 308 306 304 308 308 308 308 308 308 309 313 313 313 316 317 318 320 319 320 322 325 326 325 324 325 327 335 337 339
297 297 293 293 289 285 295 301 305 303 295 309 309 307 306 306 297 299 306 308 308 308 308 308 310 311 310 310 311 312 314 316 315 317 319 321 322 321 321 325 326 327 334 335
291 292 289 291 289 295 301 302 304 292 295 305 307 306 305 300 301 304 307 307 307 307 306 308 308 307 308 309 310 310 311 310 313 315 316 317 319 319 318 319 321 324 324 328
293 290 289 291 287 286 305 302 297 302 303 304 304 305 304 304 305 305 305 305 305 305 306 307 306 306 308 309 308 307 307 310 311 312 313 314 314 315 316 316 318 320 323 323
289 297 292 294 294 303 305 304 306 306 303 304 303 304 304 303 303 303 303 303 304 304 305 305 304 304 307 308 307 305 307 309 309 308 309 309 311 312 312 310 311 313 314 318
299 300 295 296 300 303 304 306 306 307 304 306 305 303 304 303 303 302 302 302 303 303 303 303 302 303 304 306 306 305 307 307 305 303 304 305 305 306 307 309 311 312 313 315
300 301 297 297 299 301 304 306 305 304 306 306 305 304 303 304 303 303 302 303 302 303 303 303 302 302 302 304 304 305 305 303 301 301 301 301 302 302 304 305 307 308 309 309
301 301 296 295 304 303 304 307 307 304 303 305 303 303 305 305 303 304 304 303 302 302 304 303 302 301 302 302 302 303 302 302 300 299 299 300 300 300 301 302 303 305 304 303

GFSCGP_sfc_thetae_084.txt.gz
Theta_e
305 298 295 299 301 304 303 302 305 318 325 320 320 318 323 329 331 329 328 328 328 330 331 333 341 344 343 342 342 340 342 341 342 343 343 342 340 340 346 348 346 347 347 352
300 296 302 305 306 305 303 300 303 321 324 319 319 319 323 326 329 330 329 327 328 330 330 331 335 339 339 337 342 342 344 341 340 341 344 343 342 345 346 348 347 349 348 350
297 301 308 306 303 302 300 297 300 312 320 320 318 314 316 322 325 331 331 330 330 330 330 330 333 335 338 337 343 342 345 341 341 343 345 344 345 341 341 343 346 351 350 352
300 305 305 304 303 301 294 304 306 314 309 303 315 298 316 318 320 327 327 327 328 331 333 332 332 335 337 338 344 345 346 343 342 346 343 341 340 338 339 342 345 351 351 350
297 300 301 300 302 302 300 305 305 311 307 311 310 306 309 320 320 323 326 327 328 332 333 333 331 335 337 341 344 345 345 345 344 347 345 342 341 345 343 345 344 348 349 350
301 306 302 301 304 304 306 304 308 306 304 296 306 306 304 316 320 324 329 330 331 331 333 335 336 338 337 341 343 347 345 344 341 345 347 344 340 341 339 341 343 346 347 349
300 301 304 304 299 301 301 297 291 290 294 294 303 306 306 319 326 326 328 330 331 332 334 333 335 337 338 339 342 347 345 342 342 343 346 345 341 335 337 341 343 343 345 346
291 292 301 304 300 297 296 297 292 288 289 294 306 302 307 321 328 328 329 329 328 329 335 333 335 337 338 339 342 343 346 343 344 344 346 346 343 341 338 341 344 344 345 346
291 294 305 307 304 302 296 294 300 295 292 293 303 306 313 318 316 317 319 323 325 332 334 336 336 339 340 340 342 342 345 346 345 345 345 346 346 344 343 343 341 342 344 347
295 292 298 305 305 302 298 302 295 293 288 287 300 302 302 311 308 311 312 316 318 321 325 331 333 335 339 342 342 342 343 346 347 346 346 348 346 347 345 343 339 344 343 350
295 292 294 301 296 297 299 296 298 296 293 290 293 298 316 310 309 307 308 313 314 318 321 323 328 334 338 339 340 340 340 342 339 341 341 347 349 348 347 347 347 348 346 347
297 290 288 296 303 304 302 297 297 295 294 297 297 302 316 311 311 309 308 310 313 316 318 320 321 327 332 333 337 338 338 337 338 340 341 343 345 347 348 348 348 347 345 344
296 290 287 292 297 299 296 296 293 294 294 295 292 298 311 312 310 308 306 309 311 314 315 316 319 320 324 328 332 335 337 337 338 337 338 341 340 345 345 346 348 349 346 345
303 290 291 288 295 295 293 296 296 292 289 296 296 301 303 305 305 306 306 308 309 311 312 315 316 317 319 322 325 330 333 336 337 336 337 337 337 336 338 343 345 347 346 345
296 290 291 298 297 297 296 296 298 292 295 297 300 301 302 304 304 305 306 309 308 308 309 311 314 316 318 318 322 323 325 328 332 333 334 335 338 338 341 340 338 339 345 350
294 292 292 293 301 299 295 298 301 304 308 305 304 300 306 306 307 305 306 307 308 309 310 312 313 315 317 317 317 323 322 323 324 324 325 329 332 334 336 340 339 339 340 346
296 290 289 287 297 298 291 295 297 304 309 306 300 303 306 304 306 307 306 307 308 309 310 312 313 314 314 317 319 317 320 322 322 322 323 324 324 325 326 333 337 335 337 341
291 291 288 286 290 285 295 301 300 303 306 307 305 305 306 306 307 307 308 307 307 307 309 310 313 313 314 317 317 319 321 321 322 322 324 324 323 324 326 327 327 330 336 337
292 289 286 285 284 291 298 299 297 295 299 308 306 307 307 306 306 302 307 307 306 304 305 308 310 308 308 309 312 315 315 316 316 317 319 320 322 321 322 324 325 327 330 329
293 291 288 287 284 282 292 300 303 304 294 306 307 305 303 304 296 299 305 306 305 306 307 306 307 307 308 308 311 309 308 309 310 312 314 316 317 317 317 318 320 324 326 328
289 286 285 286 285 292 299 301 303 290 292 305 306 305 304 299 300 301 305 304 304 305 306 306 306 305 305 306 307 305 305 305 308 310 311 312 313 313 313 314 315 317 320 323
289 284 282 286 282 283 302 302 294 297 299 302 303 302 301 302 303 303 303 302 303 304 305 305 304 304 305 305 304 303 304 306 306 306 306 307 308 310 311 310 310 312 312 313
286 292 288 290 289 298 301 301 302 303 301 300 303 305 303 303 302 302 301 301 301 302 301 302 302 303 304 304 303 302 303 303 303 301 301 302 304 304 305 305 307 308 309 309
295 295 290 292 297 298 300 303 304 303 303 303 303 302 303 300 301 301 299 301 301 300 300 301 301 301 300 302 302 301 301 301 300 298 298 299 299 300 300 303 305 305 306 306
295 295 292 291 295 297 302 302 303 302 304 304 302 302 303 301 300 300 300 300 300 300 300 301 300 299 299 300 300 300 300 299 297 297 297 296 297 296 297 299 300 302 303 303
296 295 291 291 298 297 297 301 303 301 302 302 301 300 302 301 301 302 300 300 300 300 300 299 298 299 298 299 299 299 299 298 296 295 295 295 295 295 296 296 298 301 301 300

GFSCGP_sfc_thetae_087.txt.gz
Theta_e
304 298 295 299 300 302 302 300 301 317 327 324 321 320 325 329 331 326 326 326 326 328 334 339 341 343 342 342 340 341 340 340 342 340 340 339 339 339 344 345 345 346 347 349
298 295 300 303 304 302 302 299 306 319 323 322 320 319 323 326 329 329 327 326 327 327 333 338 339 341 341 340 340 338 340 339 341 341 342 342 340 341 344 346 345 346 348 348
296 299 306 304 302 301 296 296 300 312 318 320 319 315 319 325 327 331 333 331 329 327 329 335 338 339 340 339 339 339 340 338 339 342 344 343 342 340 341 343 345 347 349 349
298 304 304 301 301 300 292 301 306 316 309 305 315 302 312 318 319 324 330 329 328 327 329 334 337 337 337 338 341 340 341 337 338 343 342 341 339 337 339 340 344 347 350 349
297 299 299 299 301 302 299 302 304 315 305 306 309 301 304 316 314 319 327 327 329 330 328 332 335 337 338 340 342 342 342 338 340 342 341 340 338 339 342 344 340 345 347 349
300 303 301 301 303 303 304 301 303 302 300 296 303 303 302 312 315 320 327 328 328 330 330 332 335 337 338 340 343 343 342 340 342 343 341 340 339 340 339 339 341 344 345 347
297 299 301 302 296 298 298 295 291 292 293 294 301 303 301 315 322 325 325 328 330 331 331 331 333 334 336 337 342 343 341 339 341 343 343 343 340 340 339 340 341 344 343 344
290 290 299 301 299 295 295 294 290 287 289 293 303 298 304 317 324 327 329 330 330 332 332 333 333 335 337 338 341 343 341 340 339 340 343 343 341 337 336 340 342 342 343 345
289 292 302 304 302 300 294 293 298 292 291 291 300 303 313 316 313 319 322 324 323 328 333 333 335 337 337 338 340 343 343 341 341 340 342 343 341 340 337 338 342 343 344 345
293 290 296 303 303 300 298 300 293 292 287 286 298 298 301 312 310 313 316 318 321 324 325 330 333 337 338 338 341 342 345 344 344 341 341 343 343 343 342 342 340 340 342 343
292 291 293 299 295 292 296 295 295 294 292 289 292 297 309 310 309 308 312 314 318 320 323 325 328 337 339 341 342 342 341 343 340 343 343 344 344 344 343 343 342 340 341 344
294 288 287 293 299 300 296 292 295 293 291 293 294 297 312 310 309 309 309 313 316 318 320 322 325 329 335 338 340 341 340 338 338 339 340 342 344 345 344 344 345 345 346 344
294 288 286 290 294 298 294 294 291 291 294 294 292 295 312 311 308 308 307 309 314 316 316 320 323 324 326 331 337 338 338 337 338 338 338 338 336 339 342 344 346 347 345 343
301 289 289 288 292 294 291 294 294 290 288 291 293 302 306 305 304 304 305 308 311 313 314 316 318 320 323 324 327 334 338 339 338 338 338 336 336 336 337 337 338 341 345 345
295 290 291 296 296 296 294 295 298 291 292 294 298 300 305 304 303 304 306 308 308 309 312 314 315 317 319 321 323 326 329 332 336 336 336 335 337 337 339 339 338 338 339 343
294 291 291 292 301 297 294 297 297 304 304 302 300 297 304 304 304 304 306 307 306 308 309 312 314 315 316 318 321 324 323 325 326 327 329 332 333 332 333 338 337 336 337 339
292 289 289 287 293 299 293 294 295 301 305 303 298 300 304 302 303 303 304 306 307 310 310 312 313 315 316 317 317 318 320 322 322 322 324 325 326 325 325 327 328 333 334 334
289 289 286 286 289 284 296 301 302 303 304 304 303 303 305 304 304 304 306 308 309 310 311 312 312 312 314 317 319 319 320 319 320 320 321 323 324 324 325 326 325 326 328 328
290 288 286 284 283 289 295 298 297 298 298 305 304 305 305 305 304 302 306 307 307 306 309 308 309 310 312 313 314 312 312 312 312 313 314 316 317 317 317 317 319 322 323 325
291 289 287 285 284 282 291 299 301 300 293 306 306 305 303 304 296 298 303 305 305 306 306 306 306 307 307 306 307 307 306 307 307 309 310 312 312 314 314 313 315 317 319 323
286 285 283 285 283 290 298 301 303 292 290 304 308 306 305 302 299 302 303 303 304 305 305 305 305 305 304 304 306 304 303 303 305 306 306 306 307 308 309 311 311 312 313 315
287 282 280 283 281 282 300 300 291 296 298 301 306 306 305 300 302 303 303 302 303 303 304 304 303 302 302 303 304 301 301 301 302 302 302 302 302 304 304 304 307 309 309 309
286 291 287 289 287 295 299 299 300 299 299 299 301 302 302 303 303 302 301 301 302 303 303 303 303 301 301 302 301 299 299 300 300 299 298 298 299 300 300 300 302 304 305 305
292 294 288 291 295 297 299 300 300 300 301 303 304 306 307 305 304 301 300 300 300 301 301 301 300 299 299 300 300 299 299 299 298 297 296 297 296 296 296 299 300 300 301 302
294 293 290 290 293 296 300 300 300 302 303 302 304 304 304 304 301 300 299 300 300 299 299 300 298 298 298 298 298 298 298 297 295 295 295 295 295 294 295 296 297 298 299 299
295 293 290 290 294 295 295 299 303 301 302 302 301 300 302 303 301 302 300 300 299 298 298 298 297 298 297 298 297 297 297 296 294 293 294 294 293 293 294 294 294 299 299 299

GFSCGP_sfc_thetae_090.txt.gz
Theta_e
301 299 296 301 299 301 303 302 304 315 325 323 321 320 324 327 329 325 327 328 330 331 335 336 339 342 342 341 341 341 339 339 341 341 341 341 341 343 346 348 347 350 351 352
298 296 301 305 302 302 300 298 308 318 326 321 316 318 323 327 329 327 325 325 327 330 332 335 338 341 341 340 341 340 339 340 341 342 342 343 342 344 347 349 348 350 350 352
296 299 304 303 300 299 295 295 298 311 318 321 318 315 319 325 329 331 332 328 327 327 330 334 337 338 340 339 340 340 340 341 342 343 344 343 344 343 344 347 349 350 351 350
298 302 302 300 300 299 293 300 306 316 311 305 317 304 314 320 322 325 329 328 326 327 333 336 336 337 338 340 342 341 340 340 341 344 343 343 341 340 342 345 348 350 353 352
297 298 299 298 299 301 299 302 304 315 305 306 309 302 304 318 317 321 325 330 327 326 332 335 337 338 340 341 341 341 341 338 340 343 344 342 341 342 344 345 345 349 352 352
299 301 300 300 302 303 304 299 302 303 301 297 303 303 301 310 315 321 325 329 328 326 329 336 339 340 339 340 341 341 340 338 340 342 342 342 341 342 343 344 343 346 350 351
296 297 299 300 295 297 297 292 291 291 294 292 299 302 301 314 319 321 323 328 329 328 328 333 335 336 338 338 342 343 340 338 340 342 342 341 342 344 343 343 344 345 347 349
290 288 297 300 298 294 293 293 289 287 289 294 303 297 303 315 320 327 328 328 329 329 329 331 334 336 338 338 342 342 341 340 341 343 344 343 343 343 342 344 345 346 347 349
288 290 300 300 298 299 293 290 294 290 289 292 297 303 312 317 318 322 322 324 327 331 332 332 334 336 337 339 340 342 342 341 341 343 344 344 343 341 340 341 346 347 348 349
292 288 294 301 300 299 296 299 292 290 286 285 297 299 299 311 313 318 318 320 323 326 328 333 334 335 337 339 341 344 343 341 342 342 342 345 344 343 343 344 343 345 347 349
292 290 292 296 294 292 295 294 292 292 291 290 291 297 309 311 314 314 316 319 321 323 325 327 330 337 338 340 342 343 345 345 342 343 344 345 345 346 347 345 345 345 345 345
294 288 287 291 296 298 294 292 293 291 290 292 293 295 310 310 310 314 314 318 319 321 322 325 328 331 338 339 341 341 341 341 341 341 342 344 347 347 348 345 347 349 347 347
296 289 286 289 292 295 293 293 289 290 294 294 292 293 310 309 308 309 310 314 317 317 319 322 326 328 330 336 339 339 339 339 339 339 338 337 337 340 341 344 347 348 349 348
302 290 290 286 288 291 291 293 295 289 289 291 293 298 307 306 305 305 306 310 314 316 317 319 321 324 326 329 333 337 337 338 339 338 338 337 338 339 339 339 340 341 346 348
296 292 292 295 295 295 294 294 296 296 290 293 295 300 303 305 304 304 306 310 311 312 314 317 318 320 322 325 327 331 331 334 338 338 339 337 337 338 340 340 340 340 341 342
295 292 293 292 297 298 296 297 299 303 303 301 300 300 305 305 305 304 306 306 308 310 312 314 316 318 320 322 324 326 327 328 330 330 332 335 333 331 333 336 337 337 338 339
292 290 290 287 292 298 293 295 299 302 304 302 297 299 303 302 304 304 305 306 307 309 311 313 314 315 316 317 320 321 322 325 325 325 326 327 327 326 327 328 329 332 331 333
289 288 288 287 288 284 295 301 304 303 304 304 302 303 304 303 304 305 307 307 308 309 311 311 312 314 317 318 317 317 317 317 318 317 318 320 321 321 324 324 323 325 327 329
289 288 285 284 283 288 294 296 296 296 299 304 302 303 303 304 304 304 307 308 307 310 310 310 313 314 313 312 313 311 311 312 311 311 312 314 317 315 316 316 318 320 321 325
290 288 288 284 282 281 289 299 304 301 291 305 305 304 303 303 297 299 305 306 308 308 309 309 309 311 309 309 310 309 308 308 306 307 308 310 311 312 312 313 315 317 318 321
285 284 283 285 283 289 296 300 303 291 291 305 308 306 304 302 303 303 304 305 306 306 306 307 306 305 306 306 306 304 304 303 304 305 305 305 306 307 307 311 311 312 314 314
286 282 279 283 282 282 299 299 292 296 300 304 307 306 305 302 303 304 304 304 304 304 305 305 303 303 304 305 304 301 301 302 303 303 303 302 302 303 303 305 306 308 308 309
285 290 286 287 287 294 297 297 300 300 301 303 305 305 304 303 303 303 303 303 304 304 303 303 302 301 302 303 302 300 301 302 301 300 300 300 301 301 302 302 302 303 304 304
291 292 290 291 295 297 299 301 302 302 302 304 304 305 306 305 304 303 303 303 304 304 302 303 302 301 301 301 301 301 301 301 300 299 298 299 299 299 299 300 301 300 300 300
292 293 290 290 293 296 300 302 302 303 304 304 305 306 306 305 304 304 303 302 303 303 303 302 301 300 300 300 300 300 300 299 298 298 297 297 298 297 298 299 298 299 300 299
294 292 289 289 295 296 297 300 303 302 303 303 303 303 305 305 304 304 303 302 302 302 302 300 300 300 299 299 299 299 299 298 297 297 297 297 297 297 297 297 297 299 298 298

GFSCGP_sfc_thetae_093.txt.gz
Theta_e
309 310 309 310 308 309 317 315 312 317 326 324 322 322 325 329 330 329 332 333 333 334 341 343 344 346 348 350 351 352 353 354 352 351 351 351 350 355 356 355 359 359 361 358
307 307 312 311 308 307 309 310 309 322 326 323 321 319 323 329 328 331 331 333 333 336 339 340 343 345 347 349 351 353 353 354 353 353 353 354 354 354 357 358 358 359 360 361
304 309 309 308 306 305 306 306 317 316 320 320 317 313 319 326 332 331 333 335 336 336 337 339 341 344 346 348 350 352 354 354 354 355 354 354 354 354 354 355 355 356 359 359
309 308 307 305 305 307 304 308 312 319 316 309 318 303 314 322 325 329 330 332 334 336 338 340 341 343 344 347 351 353 354 353 353 356 354 355 354 355 352 353 356 357 359 358
304 305 305 304 306 307 306 307 310 319 314 314 311 307 311 321 320 325 331 331 332 334 337 339 341 344 345 348 349 351 353 353 353 355 356 353 357 353 353 354 357 359 361 360
306 308 308 307 308 309 309 309 312 315 313 303 312 309 308 316 321 326 330 333 333 333 336 340 339 343 345 347 348 349 352 352 355 354 355 356 354 356 352 353 352 354 357 359
303 303 306 307 304 306 306 302 298 299 300 298 309 311 312 321 323 326 327 332 335 333 335 339 339 341 344 345 345 343 351 351 352 353 354 355 355 356 357 356 353 353 356 360
297 295 304 306 305 302 304 303 298 294 297 301 309 304 311 320 324 329 331 333 336 335 335 338 341 341 338 340 345 345 348 351 352 351 353 356 357 352 354 356 356 354 358 363
297 297 305 305 307 307 301 299 307 302 302 302 307 312 317 321 322 327 329 331 333 335 333 336 341 343 343 339 344 348 348 350 350 350 352 354 355 355 354 356 358 357 359 356
302 297 303 306 306 305 305 307 300 301 296 296 304 307 311 317 318 321 324 325 329 333 334 336 339 342 344 342 341 346 345 349 351 350 351 356 357 357 356 355 353 356 358 358
303 301 300 304 303 302 303 302 303 304 302 298 298 305 318 320 321 319 321 324 325 328 331 333 338 340 342 341 341 344 346 350 349 345 348 352 356 356 356 355 356 356 356 356
302 302 299 298 302 304 304 304 305 299 300 305 305 305 317 319 323 323 322 325 327 327 328 330 334 339 341 342 342 343 346 349 349 350 346 346 353 355 356 356 356 357 356 357
302 299 296 297 301 304 303 302 302 305 308 305 299 304 315 317 319 319 319 322 322 324 325 327 331 334 340 342 343 341 342 344 343 342 340 341 343 354 356 356 357 357 358 359
307 299 299 296 298 301 301 303 301 303 301 304 305 307 310 315 316 315 315 318 320 321 323 324 326 328 332 341 342 344 343 344 343 341 340 340 343 346 349 350 352 353 357 359
304 298 300 301 302 303 303 305 307 301 301 302 304 306 312 316 317 317 319 316 317 319 320 322 322 324 327 330 334 337 340 341 340 339 338 339 341 345 346 348 348 349 350 352
304 298 299 298 301 303 300 305 309 308 307 307 307 307 312 318 316 314 317 315 316 318 318 319 320 322 323 325 328 329 331 333 340 340 339 339 341 335 335 344 345 345 345 346
301 299 299 296 299 302 298 301 304 306 309 309 305 310 314 312 313 315 317 318 316 317 317 317 318 317 319 321 323 324 326 328 328 329 330 331 332 333 331 332 335 337 338 339
301 299 298 296 299 291 300 306 307 306 308 310 310 310 314 315 316 316 317 318 317 318 319 319 320 318 317 318 318 318 320 321 321 320 320 322 324 325 329 330 328 329 332 334
302 301 295 295 295 296 299 300 301 302 303 310 309 311 312 312 313 312 316 318 318 318 319 320 322 319 315 314 315 314 312 313 314 314 315 317 318 318 319 320 323 325 328 330
301 303 301 296 291 289 298 303 307 306 299 312 312 312 311 312 310 313 315 316 316 317 316 317 315 314 314 313 312 310 309 308 307 309 310 312 312 313 314 316 320 323 326 328
297 297 295 296 294 296 302 305 307 297 300 310 313 314 313 312 314 315 316 316 317 315 315 314 316 313 310 311 313 310 310 307 308 309 311 312 312 309 312 315 317 317 318 320
295 296 296 295 293 291 305 305 300 305 309 309 314 315 313 311 312 313 314 314 314 315 315 316 315 315 315 315 312 309 307 308 309 309 309 310 310 310 309 312 313 313 313 313
297 300 301 299 299 304 307 307 309 309 308 311 312 316 315 311 311 312 313 313 314 314 313 314 313 312 312 312 313 311 309 310 310 309 308 309 309 308 309 309 309 310 310 308
300 301 303 301 305 306 308 309 309 310 310 311 312 314 314 312 312 311 312 312 312 312 311 312 311 311 310 311 311 310 309 309 309 308 307 307 307 307 307 307 307 307 306 306
302 302 302 301 303 305 308 310 310 309 311 311 312 313 314 313 312 312 311 311 311 311 311 312 311 311 310 310 309 308 308 308 306 306 306 306 306 306 305 305 305 306 305 304
303 303 301 302 308 309 308 311 311 310 310 312 312 312 314 315 314 314 311 310 310 310 311 311 311 311 309 309 308 307 307 307 306 305 305 305 305 305 305 304 303 298 299 297

GFSCGP_sfc_thetae_096.txt.gz
Theta_e
312 315 316 317 317 314 319 316 320 325 329 322 321 321 325 330 330 331 332 334 335 336 341 344 345 347 349 349 352 355 355 360 361 358 352 352 351 355 355 357 362 362 361 361
308 308 319 321 314 314 319 319 319 325 329 326 320 320 326 329 329 332 331 332 334 336 339 343 345 347 348 350 351 354 357 360 360 357 358 355 355 355 357 358 362 361 361 363
305 309 319 316 312 311 315 317 317 320 323 324 321 316 319 325 329 333 334 335 336 338 339 342 344 346 348 350 353 355 358 360 360 360 358 361 362 360 361 357 357 359 361 362
307 312 313 314 314 313 311 314 320 322 318 309 318 305 314 318 322 328 332 335 334 338 341 343 344 345 347 349 354 357 359 360 360 362 357 357 362 356 359 355 357 358 362 360
306 309 311 310 314 315 311 313 316 319 317 315 314 312 313 318 317 327 334 334 335 338 339 341 344 347 349 350 352 356 359 361 360 361 360 354 352 361 352 355 364 362 363 362
309 315 313 313 315 315 313 312 314 318 316 308 312 310 309 315 319 324 333 336 336 337 339 342 345 348 349 350 352 354 358 360 360 360 360 359 355 354 361 359 355 355 357 360
306 308 312 314 311 314 312 310 302 302 304 305 316 311 312 318 326 327 331 334 337 338 339 340 343 345 348 350 351 353 356 357 359 358 358 359 358 358 356 360 360 355 362 360
301 299 308 312 310 308 310 310 303 297 301 304 311 307 313 326 329 331 335 335 339 340 339 340 342 341 344 350 350 348 353 357 358 358 360 361 361 353 357 356 355 363 358 355
301 301 310 310 312 311 309 306 313 307 308 305 308 312 320 325 327 331 334 335 336 340 341 341 344 347 349 346 348 346 347 353 357 357 358 359 362 360 355 359 359 367 366 359
306 300 307 309 311 311 309 312 306 307 300 299 306 308 309 320 324 327 331 334 336 340 342 342 344 346 345 344 345 346 351 351 354 355 357 357 355 356 356 359 360 361 362 364
309 305 304 308 305 304 306 305 307 309 307 301 300 306 323 323 327 327 328 330 334 339 341 342 345 348 349 345 343 344 345 348 353 354 356 356 356 354 355 355 356 358 360 363
310 306 302 303 309 311 309 307 308 301 304 306 306 308 324 327 330 330 326 330 331 334 335 338 344 345 345 347 344 342 344 344 348 355 355 353 355 356 354 355 356 360 358 364
309 304 300 301 305 309 306 308 310 309 308 306 303 307 325 327 329 329 329 330 329 330 331 334 339 342 345 344 342 342 345 349 350 348 349 350 350 353 355 356 356 359 360 360
309 306 304 299 302 307 305 306 308 308 303 304 306 310 320 324 325 325 327 326 326 328 329 328 331 338 341 344 346 346 346 347 347 345 344 343 344 347 351 354 357 358 360 361
308 303 306 306 307 307 306 306 306 306 307 304 308 309 319 324 326 327 326 327 326 328 331 328 326 329 331 338 347 348 347 348 350 345 342 344 346 348 350 353 355 358 359 358
310 302 306 303 306 306 306 308 308 307 307 308 309 309 319 327 329 328 326 322 325 327 328 327 325 327 327 328 334 342 345 346 350 345 344 344 347 346 345 347 350 351 352 355
306 306 302 299 304 305 301 306 307 310 311 311 307 316 321 322 323 325 326 326 326 327 328 326 324 324 325 325 327 328 330 334 335 336 337 337 339 341 339 335 337 344 347 349
306 308 305 299 302 293 305 310 310 309 311 313 315 317 320 322 325 327 329 328 326 326 323 325 322 321 320 319 319 324 323 324 325 326 325 328 331 333 335 333 334 337 340 347
311 308 302 299 298 302 303 306 306 306 307 313 315 317 321 324 323 322 325 328 329 329 329 326 325 320 318 317 317 316 317 319 318 320 322 321 321 323 329 331 335 339 341 342
306 310 303 300 296 294 304 306 310 310 303 314 317 318 319 321 316 320 325 327 326 327 329 329 324 317 315 314 315 312 311 311 311 314 316 318 320 320 321 324 324 329 331 336
301 303 300 299 297 300 307 308 311 300 304 315 319 320 320 319 318 323 325 324 325 326 325 325 323 319 317 315 312 310 309 308 308 311 312 314 315 316 318 320 321 324 330 331
300 299 299 301 297 294 309 308 304 310 314 315 319 320 320 320 320 322 323 322 322 322 322 320 317 314 313 316 317 312 309 310 312 313 312 313 315 314 317 319 319 323 323 323
301 304 306 302 304 311 313 313 314 315 314 315 317 320 321 319 319 321 321 321 321 321 320 321 320 320 320 317 315 311 312 314 314 312 312 312 314 319 319 318 315 314 319 317
307 308 306 304 308 309 312 314 314 315 314 315 318 320 321 319 320 320 321 321 321 322 321 321 320 319 318 319 318 318 317 316 315 313 313 313 314 316 318 317 317 317 314 314
307 308 306 305 309 311 313 314 314 313 314 314 317 319 320 321 320 320 320 321 321 321 320 320 320 319 318 318 317 316 316 315 314 312 313 313 312 314 313 313 311 313 309 306
309 306 304 303 308 310 308 314 316 314 313 314 314 315 319 320 320 321 321 322 321 321 321 320 320 319 318 317 316 315 314 313 312 311 310 311 311 311 312 310 307 298 299 297

GFSCGP_sfc_thetae_099.txt.gz
Theta_e
312 314 315 319 322 320 318 316 314 325 326 322 322 319 325 328 327 330 330 330 332 331 337 341 342 344 346 349 351 352 357 359 358 356 351 354 352 355 355 358 361 361 360 361
309 309 318 322 321 318 321 318 313 324 327 322 321 319 325 326 325 327 331 330 332 334 336 339 341 343 344 347 351 354 357 360 361 356 358 359 354 358 358 359 361 362 360 362
307 310 316 319 319 314 316 318 313 312 323 322 319 315 320 325 325 329 333 334 332 334 336 338 340 342 345 348 349 353 357 361 360 357 362 361 361 361 356 358 357 359 361 360
309 313 312 318 317 316 310 321 319 317 320 314 320 306 318 320 321 325 333 330 331 333 334 339 340 342 343 349 353 355 357 360 361 360 362 357 361 358 353 353 357 360 361 359
306 308 310 313 315 319 313 318 321 320 319 318 316 311 315 322 317 320 332 331 332 334 337 338 340 343 345 349 351 354 358 360 361 361 364 355 356 359 357 354 360 357 364 361
309 314 313 314 316 319 319 315 316 320 319 306 314 312 312 316 318 320 326 332 333 336 337 341 341 345 345 348 352 353 358 360 361 361 360 358 353 356 358 356 359 355 357 358
307 309 314 316 312 317 318 312 304 303 303 306 314 312 313 322 322 324 326 331 334 334 337 338 340 340 346 347 351 353 358 359 360 359 358 357 357 358 356 359 351 348 350 353
301 300 310 313 313 311 314 313 306 300 302 305 315 308 313 322 325 326 331 335 337 337 335 337 342 341 348 348 350 353 357 359 359 358 359 360 359 353 352 356 360 353 351 353
303 302 312 313 314 314 311 310 316 307 310 304 308 316 322 324 324 329 331 334 336 338 336 338 341 347 349 350 352 354 358 359 358 357 359 360 360 359 357 358 360 357 363 359
309 302 310 311 313 313 311 315 308 309 301 298 306 309 310 320 324 329 331 334 337 339 341 339 344 347 346 345 354 351 351 355 358 358 357 358 358 358 357 358 358 360 355 361
311 308 306 309 307 306 307 307 311 311 309 302 302 308 321 324 328 329 333 336 337 340 342 346 346 348 351 351 351 348 352 353 356 357 359 360 357 358 359 356 356 358 360 362
311 308 303 305 310 312 311 308 309 304 305 308 306 307 326 328 331 333 334 337 341 344 344 345 346 348 348 348 342 345 344 346 346 352 357 357 355 357 357 355 356 358 359 360
311 305 301 302 307 310 307 309 309 309 309 306 303 309 326 331 330 333 333 334 338 339 342 344 345 347 350 347 346 347 346 344 346 347 354 352 355 355 357 359 357 358 358 360
313 307 304 300 303 308 304 307 309 308 304 304 306 314 323 328 329 331 331 331 331 333 335 337 340 343 346 349 349 348 347 347 349 349 345 346 347 348 350 352 353 354 361 359
310 305 307 307 309 309 307 306 307 306 309 306 307 310 322 328 329 331 331 330 330 332 333 331 333 336 342 347 348 349 348 348 350 349 350 349 346 348 349 349 353 355 359 358
313 305 308 305 308 308 306 308 308 308 308 309 308 313 326 331 333 332 331 332 332 331 332 332 329 331 331 336 347 350 351 348 350 351 350 350 351 353 351 353 351 353 355 356
309 307 307 300 307 307 302 308 308 309 311 310 308 315 323 327 329 331 331 331 330 331 330 330 330 329 329 328 333 338 344 351 349 347 346 348 348 348 348 349 349 345 348 355
308 305 304 304 305 296 306 312 313 311 313 314 317 320 323 326 330 332 334 333 332 330 330 332 329 325 323 321 324 327 327 333 338 337 336 337 338 339 341 343 343 338 343 348
310 306 303 298 296 303 307 309 309 309 310 315 317 319 323 327 329 328 332 334 332 332 332 332 330 325 321 318 317 319 320 320 321 327 327 329 332 335 336 336 342 342 345 346
308 310 305 304 296 296 302 310 313 312 305 316 318 319 322 324 318 324 331 332 332 331 330 329 326 321 318 316 317 314 313 317 314 314 317 327 325 326 329 333 335 339 341 342
303 304 301 302 299 300 310 311 313 301 304 317 319 320 322 322 325 329 331 330 331 330 329 327 324 318 315 315 315 313 312 309 312 313 316 317 320 321 323 325 325 327 334 338
303 301 301 302 298 297 312 310 305 315 317 318 321 322 322 324 325 328 328 328 329 328 327 327 326 323 318 317 313 310 310 314 313 314 314 316 317 317 319 323 323 327 328 329
302 306 305 305 306 315 315 316 318 318 317 317 319 322 324 322 324 326 327 327 327 327 326 325 322 320 320 321 323 312 312 314 314 314 313 314 317 318 319 323 321 319 323 322
308 312 307 307 310 310 312 315 316 317 316 317 319 321 322 321 324 325 326 326 325 326 325 325 324 322 321 319 318 317 320 320 318 317 315 315 315 317 320 318 318 318 317 317
308 311 307 308 311 312 313 315 315 315 315 314 317 319 321 322 323 325 325 326 326 326 325 325 322 322 322 323 322 321 318 317 315 316 315 315 314 314 316 316 310 311 309 305
310 308 305 306 312 313 312 316 316 314 314 315 315 317 320 323 323 324 325 326 327 326 325 324 324 323 322 322 321 320 320 319 317 315 314 314 314 314 314 313 309 298 298 297

GFSCGP_sfc_thetae_102.txt.gz
Theta_e
312 307 310 318 321 322 317 319 319 317 323 323 321 320 323 330 331 329 329 328 330 332 334 338 341 344 345 348 351 352 352 359 356 357 350 355 355 354 358 354 365 367 367 368
308 304 312 320 322 323 318 315 315 315 317 321 320 319 323 327 327 328 330 328 331 331 333 337 339 342 343 347 351 356 360 362 362 363 363 359 352 362 359 362 366 366 361 367
305 308 313 315 316 316 318 316 312 310 313 317 320 316 321 325 327 328 329 332 334 332 331 337 339 338 344 348 352 353 353 363 363 365 355 359 350 362 352 362 363 363 361 366
306 312 310 311 312 317 313 319 316 314 308 304 320 305 316 319 320 323 326 329 333 332 335 339 338 339 342 347 351 358 358 361 360 355 355 358 355 343 357 360 349 353 366 362
304 307 308 308 311 319 312 322 317 315 309 309 313 310 313 321 317 320 324 328 332 334 335 334 337 337 345 347 348 354 360 363 365 364 365 361 359 358 356 354 351 354 361 364
307 312 311 310 315 318 317 317 316 314 310 304 312 312 311 316 320 323 325 329 334 334 332 336 338 340 346 348 350 354 359 362 366 364 363 361 364 356 354 345 353 354 361 363
305 306 312 313 309 315 316 312 304 303 301 303 313 311 314 321 325 325 324 328 332 336 335 337 338 339 343 347 350 354 358 359 362 361 361 362 361 361 360 360 350 356 347 346
300 298 308 313 311 309 312 312 303 297 299 304 312 307 315 324 326 326 328 330 333 334 337 337 338 337 344 349 353 352 357 359 360 359 362 364 367 358 359 362 356 348 348 347
303 302 310 312 314 313 310 307 314 306 308 305 308 314 322 322 322 325 327 329 329 331 334 337 337 342 339 339 349 351 356 357 360 359 363 365 366 366 364 364 371 361 349 348
308 302 309 311 313 313 312 314 305 308 299 298 305 306 311 317 319 324 326 328 327 329 334 336 337 338 335 337 345 353 359 357 358 355 360 360 361 363 366 367 364 361 345 340
310 308 307 310 307 306 307 306 308 309 309 300 301 306 320 323 323 325 329 332 333 337 337 337 338 344 335 337 351 352 355 355 358 356 354 362 361 361 362 364 365 367 349 344
311 308 303 305 311 312 310 307 308 303 304 307 306 308 323 323 328 329 333 335 341 339 339 336 340 343 346 346 352 349 348 349 352 352 355 357 351 354 359 354 348 360 364 362
310 305 300 302 307 310 306 308 308 308 308 306 302 307 324 318 330 335 336 340 340 345 342 342 343 347 351 350 349 350 348 348 347 352 352 352 357 356 359 357 349 349 358 365
314 306 303 299 303 308 304 305 308 306 302 303 304 313 323 326 329 331 334 338 337 340 342 345 346 347 348 351 350 348 348 348 348 347 348 349 349 351 350 352 355 356 357 356
309 303 306 306 307 308 308 305 306 306 306 304 307 313 319 325 329 331 332 333 334 334 335 340 338 341 346 349 350 351 350 349 347 346 347 348 350 346 347 349 348 351 350 352
311 305 308 305 308 308 306 308 307 307 307 308 310 316 322 324 328 331 330 329 330 332 333 334 335 338 336 342 347 348 348 347 350 349 347 349 351 350 350 349 348 347 347 349
308 308 306 303 307 307 302 307 308 308 309 309 311 318 319 315 318 330 331 331 331 331 331 332 332 332 330 331 338 339 350 351 351 351 351 350 350 351 350 350 350 349 346 345
308 308 305 302 304 296 307 314 312 312 311 318 319 319 323 324 331 332 334 333 331 330 330 331 329 327 324 324 327 327 330 339 340 339 345 346 347 345 345 345 344 344 346 342
311 308 302 297 296 301 306 309 309 310 310 316 318 321 325 328 330 329 334 335 332 331 331 330 328 324 321 319 321 322 321 321 326 327 329 334 338 338 338 340 343 344 343 339
310 312 306 302 297 294 305 311 315 314 302 315 318 320 322 324 317 324 331 333 332 329 328 326 323 321 318 317 318 317 318 317 314 315 318 326 329 332 333 334 335 340 344 346
302 304 298 296 297 301 309 312 314 300 305 317 319 321 324 323 326 329 330 329 331 330 327 325 321 317 315 316 315 313 312 312 314 316 317 318 320 325 328 330 332 334 334 342
303 302 302 304 299 296 313 311 304 315 318 320 321 323 324 325 329 329 328 328 328 326 326 325 320 317 317 317 316 313 312 314 315 315 316 319 320 321 319 326 328 330 330 332
302 308 305 306 307 316 317 319 321 320 318 318 320 322 324 323 325 328 327 328 326 327 326 327 323 320 318 318 316 313 312 317 316 315 315 314 317 319 321 322 322 323 325 322
309 313 308 308 313 313 314 315 317 318 317 317 320 321 322 322 324 326 327 326 326 326 325 324 322 320 320 323 323 317 316 316 316 316 316 315 315 315 319 319 320 319 321 320
309 312 306 307 312 313 313 314 316 316 315 314 318 320 321 323 323 325 326 327 326 327 326 326 326 323 321 322 319 320 323 323 319 319 317 318 317 316 316 303 301 307 297 298
310 308 305 304 315 317 313 317 317 315 313 315 315 316 321 322 322 325 325 326 325 325 327 327 327 326 325 325 325 324 323 323 320 317 315 315 315 315 317 312 305 298 298 297

GFSCGP_sfc_thetae_105.txt.gz
Theta_e
307 300 298 303 310 314 319 317 312 318 320 316 320 321 324 328 329 327 326 326 327 326 330 336 339 341 340 340 343 349 346 347 345 344 344 344 341 346 350 349 355 352 353 354
300 297 304 308 318 320 317 312 313 315 318 315 315 320 323 326 327 327 328 329 326 326 329 334 338 339 339 341 344 348 348 346 348 349 350 348 344 349 350 352 353 353 351 352
297 302 308 306 318 316 316 314 313 312 315 315 314 316 319 325 328 328 329 329 331 330 329 333 336 337 340 342 347 348 350 350 349 349 348 348 349 349 343 347 349 351 355 353
299 306 306 305 312 316 311 319 316 313 309 303 315 304 315 320 321 324 326 328 329 330 331 333 335 337 339 342 346 348 351 350 350 351 344 345 343 338 344 345 346 347 353 354
298 301 301 302 306 319 315 320 315 312 308 310 310 308 312 318 316 320 324 326 329 333 332 332 333 337 340 345 345 347 349 350 350 348 349 346 342 344 347 347 346 341 348 355
302 307 304 304 310 319 322 316 314 312 310 301 308 307 309 311 314 319 323 327 329 333 336 334 336 336 341 344 349 347 348 348 350 349 348 346 345 345 342 341 345 346 348 349
302 302 304 308 308 319 317 311 301 298 297 297 309 307 309 319 322 321 323 325 329 333 333 334 334 335 338 339 345 350 349 348 350 350 347 347 348 347 344 341 342 346 344 342
294 292 301 308 303 309 313 307 298 294 297 301 312 305 310 321 325 328 327 327 331 332 335 336 332 335 339 341 346 347 349 349 349 351 349 348 350 348 347 349 345 344 343 346
294 297 307 308 309 306 304 301 309 302 303 301 307 311 316 322 322 325 325 327 327 330 334 335 338 337 343 341 346 349 349 349 351 349 351 348 351 348 348 349 348 348 348 349
300 295 304 309 308 308 302 308 297 303 295 294 304 305 308 312 316 321 322 323 327 328 332 335 338 339 342 342 342 347 350 350 351 350 352 350 349 350 349 348 343 343 342 343
302 299 300 306 301 300 300 298 299 304 302 297 297 302 316 316 319 319 322 325 326 327 330 334 338 338 339 340 341 342 341 350 349 351 351 351 350 350 348 348 348 345 341 338
304 298 294 299 307 308 302 299 298 294 295 300 299 305 323 323 323 323 325 328 329 329 329 336 337 336 335 335 339 339 341 346 350 351 348 349 348 343 346 344 345 347 345 344
303 297 292 295 301 305 299 301 298 297 296 294 296 304 320 322 322 324 329 328 329 328 332 334 336 336 336 336 338 344 345 346 347 346 346 345 341 343 347 346 343 345 350 349
310 297 295 291 297 303 302 302 301 297 292 294 295 308 313 314 313 327 329 332 333 331 333 333 333 335 336 340 345 345 344 342 342 342 343 340 342 343 346 346 347 346 347 346
302 295 298 302 305 305 304 304 303 297 298 294 307 310 313 318 324 326 328 331 332 334 335 334 334 338 339 342 342 342 342 341 342 340 341 341 342 341 342 341 341 342 343 345
303 297 302 301 307 307 304 306 307 305 302 311 315 310 319 322 323 325 326 327 329 330 332 333 334 335 335 337 341 343 343 342 342 342 341 344 344 342 342 343 341 342 342 342
302 301 299 294 303 303 300 303 306 308 309 309 308 312 315 315 317 322 326 327 328 330 328 330 330 327 328 330 332 333 340 344 343 343 343 343 343 342 344 345 343 340 338 341
301 301 299 294 299 290 303 309 309 309 310 310 314 315 314 314 315 316 329 329 328 328 329 326 325 323 324 325 326 327 336 340 339 341 341 342 342 340 339 338 338 337 338 339
304 302 297 293 291 300 305 308 306 303 304 313 312 320 322 324 329 327 331 329 328 327 327 325 323 321 320 322 323 325 323 326 326 326 330 335 336 333 334 332 336 337 337 337
310 309 300 294 291 290 302 310 313 310 301 313 317 318 322 323 315 321 327 327 325 324 322 320 320 318 317 318 320 319 318 318 317 317 323 327 328 328 325 326 328 329 332 336
300 299 296 296 296 300 309 312 313 299 303 314 317 314 318 311 320 323 325 324 324 322 319 319 318 316 315 316 316 314 315 315 317 318 319 320 321 324 323 323 325 325 328 332
299 296 296 294 291 292 312 310 302 309 313 315 322 321 323 323 325 325 324 323 323 320 318 316 315 314 315 315 314 312 311 314 315 316 317 318 319 319 320 320 322 323 323 325
297 303 301 301 298 305 312 312 315 316 312 313 314 323 323 323 323 324 322 321 321 320 319 317 315 314 314 315 313 311 310 311 312 311 312 313 314 316 318 317 316 316 320 318
306 308 303 305 307 311 313 313 315 315 311 313 314 316 320 320 323 323 321 320 322 322 319 317 315 312 311 312 312 310 311 313 311 310 309 309 309 310 312 307 310 306 307 310
306 305 301 306 310 310 311 313 312 312 313 312 314 317 318 321 322 322 322 321 321 321 320 318 316 314 313 314 311 311 311 311 310 312 311 310 311 311 302 297 301 299 297 297
305 304 299 300 310 308 309 313 316 312 312 312 313 315 316 319 323 324 320 321 321 321 322 321 319 316 315 314 312 313 314 314 312 309 310 310 310 307 303 298 294 298 297 296

GFSCGP_sfc_thetae_108.txt.gz
Theta_e
302 298 295 300 302 304 318 314 312 315 319 318 315 316 322 328 328 325 323 324 326 328 331 336 340 341 341 340 341 341 340 342 340 343 343 338 340 344 346 351 352 350 350 353
298 295 302 305 306 310 316 312 312 315 318 316 314 314 319 326 326 326 327 324 325 328 330 335 337 338 339 339 342 342 341 342 343 345 346 345 343 347 346 347 350 352 349 351
295 299 305 304 303 314 314 313 311 311 315 316 313 311 315 325 327 328 328 329 331 326 329 332 333 334 338 339 344 343 343 343 347 347 345 343 345 345 344 346 347 348 353 351
296 302 302 301 303 315 307 318 316 313 309 302 313 303 315 320 321 324 327 327 328 330 332 333 333 333 339 341 344 344 345 346 347 345 343 341 339 338 342 343 344 346 344 350
297 298 298 298 301 318 313 318 314 313 307 308 309 305 312 319 317 320 324 326 329 331 332 332 334 334 339 343 344 346 346 346 347 345 344 342 339 341 344 344 343 340 344 350
301 306 301 299 314 320 319 314 313 312 307 298 307 306 307 312 317 321 324 327 329 330 330 333 335 336 337 342 344 345 344 344 346 345 346 344 341 342 341 341 342 344 346 346
299 301 305 321 314 318 314 305 299 298 298 297 308 305 308 317 320 321 322 326 329 332 332 331 331 335 337 339 342 344 342 341 346 345 345 344 344 343 341 340 341 343 344 342
291 291 299 309 314 310 310 302 299 294 294 300 310 303 310 320 322 324 325 327 330 332 332 333 333 335 337 342 342 344 343 341 346 344 343 344 346 344 343 341 344 345 343 342
290 294 304 305 313 315 308 302 306 300 299 300 305 311 317 320 322 322 323 325 327 331 334 333 333 336 337 340 343 345 344 344 345 346 345 345 346 345 345 347 344 344 346 346
296 291 298 306 305 311 309 310 298 296 293 293 300 302 305 311 315 321 323 323 327 330 332 333 335 339 340 339 338 344 346 346 347 347 347 344 347 346 346 345 344 346 347 345
298 293 297 301 297 297 297 297 296 299 299 296 296 301 312 312 315 319 322 325 326 328 330 334 336 340 341 342 343 340 342 347 348 347 347 346 348 347 346 344 343 342 341 340
300 294 292 297 303 304 300 297 296 291 292 298 299 303 319 318 318 321 322 324 326 328 331 335 335 335 337 338 339 340 339 342 346 345 346 348 348 347 346 345 345 342 340 338
300 292 291 294 298 303 298 299 298 293 293 294 296 302 317 320 318 318 320 326 326 327 331 334 335 333 335 336 337 339 339 340 346 345 347 347 345 342 346 343 342 343 345 346
307 292 295 291 294 298 297 301 301 293 289 290 295 304 313 312 320 324 326 328 328 327 331 333 333 334 334 336 336 338 341 345 344 344 345 343 341 341 345 345 342 342 344 342
301 293 294 299 305 305 304 304 305 299 295 293 297 306 312 314 323 326 330 332 331 326 330 332 333 333 333 335 341 341 342 342 342 341 340 340 341 342 342 342 343 343 343 342
302 297 298 299 304 304 303 305 307 307 306 313 312 310 319 325 326 326 328 330 331 328 331 332 333 335 335 338 337 341 341 340 340 339 338 340 339 338 337 340 342 342 341 340
300 297 296 292 300 303 297 302 305 306 308 307 306 311 317 317 323 322 325 329 330 331 332 331 331 333 335 335 340 335 341 341 339 339 340 342 340 340 340 342 341 338 337 340
299 296 294 291 295 289 299 308 308 307 308 312 315 315 316 314 316 324 328 328 327 328 327 327 324 325 325 328 329 335 341 341 339 339 340 340 339 339 338 336 335 333 335 334
300 296 293 289 289 296 303 306 306 303 303 313 316 318 321 322 325 323 328 328 327 326 324 324 324 323 323 326 327 328 331 332 334 336 339 339 338 337 334 333 333 333 333 331
300 300 295 290 288 288 299 308 313 311 298 313 316 314 317 322 313 318 324 323 320 320 319 319 321 321 322 321 324 324 321 323 322 324 326 331 332 331 328 328 327 327 334 333
294 294 291 292 289 295 305 309 312 299 299 314 316 315 319 316 319 322 324 321 320 318 317 317 318 316 316 321 320 319 319 317 319 320 321 323 326 325 324 323 323 325 330 326
297 292 292 290 286 286 308 309 302 307 313 317 316 317 315 316 318 323 323 320 317 316 315 317 315 314 315 317 317 315 315 317 319 318 320 320 320 322 322 322 322 321 327 325
294 299 298 299 295 302 307 307 313 312 317 318 314 322 319 316 319 323 321 319 318 316 315 317 314 314 314 314 313 311 311 312 313 314 313 315 315 316 316 316 315 314 319 323
301 303 299 299 303 308 311 311 313 313 309 311 317 320 325 322 323 321 320 319 318 316 313 312 311 310 308 310 310 309 309 310 308 307 307 308 309 306 304 309 308 305 306 308
300 299 298 300 304 308 309 309 309 310 312 313 315 318 323 324 322 321 320 320 320 317 315 314 313 311 310 310 307 308 308 308 307 307 306 306 305 301 297 297 298 298 297 299
301 298 296 297 304 301 304 308 310 309 309 312 311 312 317 323 321 321 319 318 317 316 315 314 313 311 311 310 308 308 308 309 308 306 306 307 307 304 298 296 294 297 296 296

GFSCGP_sfc_thetae_111.txt.gz
Theta_e
300 296 293 298 299 303 317 314 312 315 320 317 315 316 320 326 327 324 322 324 325 328 334 338 340 339 339 337 336 337 341 340 342 341 338 338 339 342 343 349 347 348 349 351
296 294 300 303 303 306 316 312 310 315 319 316 315 314 317 322 326 327 323 324 325 326 332 337 337 338 337 336 337 338 341 339 340 342 341 342 342 344 343 346 348 350 348 349
294 298 303 302 302 314 312 310 310 310 315 316 314 311 315 322 327 328 328 327 327 325 330 335 335 336 337 337 338 338 340 339 342 344 343 343 344 343 342 344 345 347 351 351
294 300 301 298 298 313 306 318 315 312 309 302 314 301 312 317 320 325 327 327 325 325 331 334 333 334 336 338 341 339 340 343 344 343 341 340 338 337 340 340 342 345 343 349
296 298 297 296 298 314 310 318 314 312 306 307 309 303 310 318 315 320 325 326 326 327 331 333 333 334 337 341 342 341 342 343 343 342 342 340 337 338 341 341 341 341 341 347
299 303 301 299 312 315 318 313 310 308 305 298 307 305 305 312 315 319 325 328 329 329 331 333 333 334 337 340 342 342 341 342 343 341 342 341 339 339 340 339 341 341 342 345
298 300 316 318 312 316 311 302 293 293 295 297 306 304 305 315 321 323 324 327 329 331 331 331 330 331 336 338 341 342 341 340 342 342 342 342 341 340 340 340 340 340 341 341
292 291 310 316 311 308 307 300 294 290 292 297 308 302 308 318 322 326 326 328 330 331 330 331 332 332 335 339 341 342 340 339 342 341 342 342 343 342 341 340 339 341 342 342
291 293 302 314 316 314 308 299 303 298 296 296 303 310 315 318 318 321 323 325 328 330 332 331 332 334 335 337 340 341 340 339 342 342 341 341 343 342 342 342 342 342 343 343
296 291 297 302 314 314 307 308 298 297 293 289 298 303 303 312 316 321 321 322 326 330 333 333 332 335 337 340 340 341 342 340 342 343 341 342 342 343 344 345 343 342 343 345
296 291 294 299 297 301 297 298 296 297 297 293 293 299 312 312 314 320 321 323 325 329 332 334 334 337 338 341 342 343 342 342 344 344 344 343 343 344 344 344 344 343 342 341
299 293 291 295 299 302 296 295 295 292 290 296 297 300 317 316 316 320 323 323 326 329 332 334 337 337 338 340 341 341 340 343 345 345 345 344 344 344 344 343 343 342 339 338
300 292 288 293 297 301 298 299 294 290 290 292 293 298 317 318 316 320 321 323 326 328 331 334 335 335 336 337 336 337 338 338 342 344 343 344 344 344 343 341 342 343 341 340
307 293 293 289 293 296 298 302 302 290 287 288 293 296 310 314 319 317 320 322 325 329 330 332 333 332 333 335 336 336 338 340 342 344 345 344 344 344 344 345 342 341 342 340
302 294 293 294 303 303 302 304 305 299 298 289 293 295 308 317 321 322 324 325 325 328 330 332 332 332 332 334 335 337 340 342 343 344 341 343 345 346 344 344 342 343 342 342
301 297 297 296 304 304 300 304 306 305 306 304 308 308 319 323 326 326 326 327 324 327 328 330 332 333 333 335 338 338 340 341 341 341 342 342 343 343 341 340 340 341 341 341
298 297 295 291 298 301 295 300 303 304 309 307 302 308 317 316 319 320 325 327 328 328 330 330 330 333 334 335 337 338 339 340 338 338 339 340 338 337 338 339 340 340 339 339
297 295 295 291 293 289 297 306 308 305 307 312 314 314 316 320 323 324 326 327 327 326 326 327 326 327 327 330 333 336 338 339 339 337 337 338 338 339 339 339 337 335 336 329
298 295 291 289 288 295 304 305 303 299 300 313 314 316 321 324 324 321 325 325 324 325 324 324 324 323 325 327 327 334 333 336 338 337 339 338 339 336 335 333 332 333 331 323
299 296 293 290 287 287 299 307 311 308 296 313 316 319 319 318 312 317 322 321 319 318 319 321 323 323 323 324 327 327 331 334 333 335 337 336 336 334 332 331 331 331 330 326
292 292 290 291 288 293 302 308 309 295 297 314 316 319 318 316 318 320 322 318 317 316 316 318 317 317 320 324 323 321 321 320 325 328 328 329 329 329 329 328 329 331 329 322
295 291 289 288 285 286 305 306 299 303 310 315 314 317 316 319 321 320 318 316 315 314 316 317 315 314 316 318 319 318 317 320 323 326 325 323 323 325 322 323 324 327 325 322
295 297 294 296 294 300 304 305 308 312 314 315 318 316 315 317 320 320 318 317 316 315 315 316 314 313 313 314 315 313 312 315 316 316 316 317 316 316 317 317 316 318 325 325
298 302 297 297 299 304 307 309 311 314 313 316 319 317 316 318 322 319 317 316 315 314 313 313 313 312 311 310 309 310 309 310 308 309 309 311 311 307 307 309 310 310 311 312
300 300 298 298 301 306 309 307 308 311 314 317 320 322 323 322 319 317 316 315 315 313 311 311 309 308 307 306 307 308 308 306 305 304 304 304 304 300 298 296 299 300 295 299
299 296 297 296 302 302 304 306 310 310 311 313 315 315 321 322 320 319 316 315 315 312 313 312 311 310 309 306 305 306 306 306 306 304 305 305 304 299 297 296 294 297 296 295

GFSCGP_sfc_thetae_114.txt.gz
Theta_e
298 295 292 295 298 302 314 312 310 315 321 318 314 314 320 323 326 324 323 322 325 328 333 336 337 337 339 338 337 339 342 343 343 341 340 341 341 344 345 348 350 349 349 352
295 291 298 301 301 303 314 310 309 314 319 316 315 313 319 321 323 327 325 322 326 328 331 334 336 337 337 337 336 339 341 341 342 342 341 343 344 346 347 349 351 351 350 352
293 297 302 301 306 310 311 308 309 310 315 316 314 310 315 321 324 328 328 324 326 328 329 332 334 335 337 336 336 338 341 340 343 344 344 344 345 345 345 347 348 350 352 352
294 298 299 297 297 308 304 315 314 312 308 301 314 300 311 317 319 324 326 324 323 326 331 334 334 334 335 337 338 339 341 340 343 344 343 343 341 339 342 345 346 349 348 351
294 296 296 295 296 310 304 317 312 311 305 305 308 303 309 315 313 318 324 326 325 325 330 333 334 335 336 337 339 339 341 341 344 343 343 341 340 341 344 345 345 347 346 351
298 301 299 298 310 312 316 311 308 306 303 296 305 304 303 310 312 317 323 327 327 325 330 334 336 336 336 339 341 340 340 342 343 343 342 342 340 340 342 343 343 344 346 348
296 297 312 316 310 314 310 299 292 291 292 294 305 302 305 316 320 320 323 326 328 326 329 332 333 332 334 338 340 340 340 341 343 342 342 342 342 342 343 343 343 344 345 346
288 289 310 315 310 306 304 298 292 287 289 294 306 299 306 317 322 324 326 328 329 329 329 332 333 332 335 337 340 341 340 340 343 343 342 343 344 343 343 344 344 345 345 346
288 290 300 314 315 313 306 299 302 296 293 295 301 307 314 318 319 323 324 327 327 330 330 331 332 332 335 337 339 341 340 340 342 343 343 343 345 344 344 345 345 344 347 347
295 290 297 301 314 313 307 310 298 296 289 288 297 301 302 311 314 321 323 324 326 330 330 331 332 333 334 338 340 341 341 340 342 343 342 343 344 346 345 347 346 346 345 346
295 291 294 297 297 303 298 299 297 297 296 292 291 296 310 312 316 320 323 326 327 328 331 331 333 334 335 337 339 340 341 340 341 344 343 343 344 345 346 346 346 346 347 347
296 293 290 295 300 301 299 299 297 292 289 295 294 297 316 315 316 321 322 324 326 329 331 333 333 335 335 338 339 339 341 341 343 345 345 344 345 346 346 345 346 345 344 344
297 291 290 293 296 301 297 300 293 290 290 293 292 294 318 316 318 321 321 323 326 328 330 333 334 335 336 338 340 341 342 342 345 345 345 344 345 345 345 345 345 345 343 343
306 291 294 290 293 299 299 302 303 289 286 288 293 293 310 315 316 319 321 323 326 327 331 333 334 335 336 337 339 340 340 343 344 344 344 343 343 344 344 344 343 344 343 343
298 291 295 296 301 304 303 302 304 297 297 289 296 303 312 317 320 319 321 323 325 327 330 331 332 333 335 335 336 337 338 340 342 342 344 343 344 345 345 343 343 344 345 344
298 293 299 298 302 302 300 302 305 305 307 305 305 305 320 323 326 325 324 323 325 327 329 331 332 333 333 335 335 337 339 340 342 343 340 341 344 342 343 343 342 343 342 342
298 296 294 292 298 299 296 299 302 304 309 308 303 307 317 317 320 323 326 326 324 328 329 330 331 332 333 335 336 335 338 341 340 339 340 340 341 341 341 341 340 340 339 340
298 294 296 292 294 287 298 307 306 304 307 311 314 315 319 319 321 323 326 326 327 328 328 328 329 330 329 332 337 339 339 338 337 337 338 340 339 339 338 339 340 339 339 336
296 295 291 290 289 293 303 306 304 300 301 311 314 317 322 323 321 320 323 323 323 323 324 324 325 325 326 328 332 335 337 337 338 336 336 338 339 339 339 339 338 336 334 326
298 295 293 290 286 286 297 307 311 307 297 311 315 319 321 318 311 318 322 321 319 320 321 321 323 323 323 325 331 334 333 335 335 335 335 338 340 339 335 334 335 336 330 324
291 291 289 289 288 293 301 309 312 296 298 313 319 319 317 314 316 322 320 317 317 318 318 318 318 317 319 323 325 324 323 322 327 328 329 330 332 333 333 332 334 334 327 322
292 290 288 288 286 286 306 307 302 305 313 315 316 318 317 319 319 318 316 315 316 316 317 318 316 316 318 322 319 317 316 321 324 326 323 322 323 326 328 328 330 332 327 321
293 295 292 293 292 300 303 305 310 312 314 314 316 316 321 319 318 317 314 314 315 315 315 316 315 313 314 316 317 315 316 317 319 319 318 320 319 320 321 320 323 327 325 321
297 300 297 296 300 303 307 309 313 317 316 318 318 317 317 319 319 316 315 315 314 315 314 314 314 312 310 310 311 311 311 312 311 311 313 314 315 312 311 312 312 318 318 321
299 300 297 296 301 306 308 310 310 313 317 320 318 318 320 320 318 316 315 315 314 313 312 311 310 309 309 310 310 310 309 309 307 307 307 307 304 304 302 298 300 302 299 303
298 298 297 295 303 302 304 309 314 315 316 319 319 321 322 320 318 317 315 314 312 311 312 311 312 311 309 309 309 309 309 309 307 306 307 307 304 302 302 301 299 297 297 295

GFSCGP_sfc_thetae_117.txt.gz
Theta_e
305 305 305 305 306 309 312 314 314 318 323 319 316 316 321 325 328 328 328 329 333 335 339 342 344 345 345 347 348 350 350 353 353 352 351 351 357 353 354 354 359 358 360 361
304 303 305 307 307 312 313 312 314 317 320 319 317 315 321 322 325 327 326 328 332 334 337 340 342 343 344 346 348 350 351 354 354 352 353 353 354 354 355 358 360 361 359 362
302 304 306 306 309 310 312 309 314 313 317 318 316 313 316 323 325 329 330 331 331 333 335 338 340 342 344 345 347 349 353 355 355 355 354 355 356 360 354 356 357 359 360 361
304 304 303 303 302 307 303 316 316 315 313 308 316 306 313 319 321 325 328 331 331 332 336 339 340 341 343 344 348 350 353 355 355 356 355 357 351 348 357 364 363 358 361 361
302 302 302 301 302 307 303 319 317 316 312 311 310 308 312 318 315 322 325 328 333 332 335 337 340 341 343 345 346 348 352 354 355 356 357 352 358 352 356 355 359 359 358 360
304 306 305 304 314 309 320 316 314 313 311 304 309 309 310 313 315 320 325 327 331 333 334 337 341 343 343 345 345 346 349 352 354 356 355 356 356 356 352 356 352 356 355 355
302 303 312 319 314 318 316 312 302 300 302 300 311 308 311 318 320 322 322 326 331 333 333 336 339 340 342 343 344 345 348 350 352 354 354 355 355 356 355 357 360 356 359 358
298 295 312 318 313 310 312 307 298 293 297 302 310 305 311 320 324 323 324 327 332 331 332 335 339 340 342 342 345 346 346 348 352 353 354 355 356 352 352 356 358 354 353 354
298 298 306 319 319 317 311 307 310 305 307 303 308 312 317 321 322 323 323 328 330 328 332 335 339 338 342 343 345 346 347 348 351 352 354 354 356 355 353 356 356 354 356 355
303 298 303 308 319 317 315 316 305 308 296 295 303 306 309 316 319 322 323 326 330 331 330 335 338 339 342 344 346 348 348 348 350 352 353 353 354 357 357 356 356 356 356 357
304 301 302 303 308 307 310 309 309 309 307 298 297 302 315 318 321 321 324 328 330 330 330 333 335 336 340 345 346 348 349 350 349 351 353 353 353 354 356 356 358 358 357 356
305 303 299 302 306 306 312 310 310 303 300 305 305 302 321 320 322 325 326 329 330 331 332 333 335 335 340 342 345 346 349 349 351 352 354 353 354 355 355 356 357 357 356 356
305 301 297 299 304 307 306 310 306 303 305 304 300 301 320 322 321 326 327 330 332 333 333 334 334 335 337 341 344 346 348 349 351 352 353 353 353 354 355 356 356 356 356 355
310 302 300 295 300 305 305 307 310 304 300 302 302 304 310 319 323 323 327 330 331 332 334 336 337 334 337 344 345 346 347 346 351 351 352 352 353 354 355 357 354 353 354 354
307 301 301 302 306 307 305 306 308 304 307 298 303 309 317 321 324 327 327 329 330 331 333 336 338 339 338 338 344 348 345 345 351 349 351 353 357 354 356 353 353 352 352 353
307 302 304 302 306 305 304 304 308 310 310 311 311 312 321 324 328 327 327 328 329 331 333 336 337 337 335 336 340 342 347 346 347 351 351 354 351 348 351 349 351 351 349 347
306 306 302 297 303 302 298 302 304 309 312 312 309 315 319 320 323 326 327 328 330 331 333 336 336 335 335 335 338 338 341 345 346 347 348 347 345 347 345 345 347 347 344 343
305 305 305 299 301 291 303 310 310 308 310 315 317 317 320 320 322 324 328 328 328 328 330 333 336 335 337 340 341 338 339 340 340 339 340 342 341 341 343 343 342 343 342 341
306 305 300 298 297 299 304 307 306 305 306 315 317 319 321 322 322 321 324 325 325 325 325 326 328 330 333 336 343 342 341 341 341 338 341 340 341 340 339 338 341 341 342 338
306 306 302 298 294 291 303 309 312 311 303 315 321 320 322 323 314 317 322 323 323 324 324 323 324 325 326 327 332 337 338 339 339 336 337 340 340 341 340 340 339 337 336 331
302 302 299 299 298 300 306 310 313 300 304 318 323 322 324 322 324 323 322 321 322 323 322 322 322 320 322 325 329 329 331 329 333 333 334 333 330 335 337 336 336 332 327 325
302 301 301 299 298 294 309 310 306 311 317 321 324 323 322 320 321 322 321 321 321 321 321 322 321 319 320 321 321 320 321 325 328 328 329 330 328 326 327 331 334 329 325 322
302 305 305 304 304 309 312 312 316 317 319 321 324 323 321 321 322 322 321 323 324 323 321 320 319 317 317 318 319 314 315 319 321 322 321 320 324 322 320 324 328 329 328 324
306 308 307 305 308 311 313 316 316 321 321 325 327 325 325 322 322 323 322 323 323 323 321 322 320 315 314 314 314 314 315 316 316 314 315 317 313 314 316 314 319 323 325 324
308 309 308 306 310 313 314 316 316 320 324 323 325 326 325 324 322 323 323 324 323 322 320 319 319 317 316 316 315 315 315 316 314 314 311 308 308 307 307 306 308 311 305 305
309 310 307 305 315 316 316 317 320 323 324 324 323 324 326 325 323 323 321 322 320 319 319 319 317 316 315 314 314 316 316 317 314 312 312 311 309 307 307 306 303 298 298 298

GFSCGP_sfc_thetae_120.txt.gz
Theta_e
310 307 307 312 315 313 313 312 312 322 326 325 324 325 325 328 329 333 334 331 333 335 341 345 346 346 346 348 350 353 354 358 356 354 352 351 349 354 354 355 360 361 362 363
307 304 311 313 312 313 313 311 312 321 325 323 322 322 325 330 327 332 334 331 334 335 338 343 345 346 346 347 350 353 355 358 359 357 358 354 352 353 354 355 359 360 362 363
304 308 312 311 310 309 311 310 310 314 321 323 321 319 322 327 330 331 335 336 333 335 336 340 344 345 346 347 349 352 356 358 359 359 357 357 364 358 357 355 355 358 361 362
307 310 308 309 307 310 306 313 312 318 315 311 320 307 320 324 327 328 329 334 330 334 338 340 342 345 346 347 350 352 356 359 359 360 361 359 351 347 356 356 357 360 360 361
305 306 306 305 306 309 306 313 313 318 315 314 314 311 316 324 323 325 329 333 330 335 336 338 341 345 346 348 349 352 356 360 360 362 362 352 352 350 352 353 358 360 363 362
307 310 308 308 310 309 314 313 316 318 315 305 310 312 312 319 321 324 327 331 334 337 337 339 343 345 346 348 349 351 355 358 358 361 358 358 355 353 353 353 351 355 354 356
305 306 309 310 308 312 314 310 303 301 302 301 315 310 314 321 326 327 327 330 335 338 337 338 341 342 345 347 348 350 353 355 357 359 358 356 355 356 355 354 351 354 352 353
301 299 307 313 310 309 310 309 302 295 298 302 314 306 315 324 326 329 332 332 336 337 338 338 341 343 345 347 349 350 351 353 355 356 356 359 359 359 354 354 356 352 353 354
303 301 310 315 316 316 310 308 312 305 306 303 306 313 320 324 324 327 328 328 329 333 337 339 340 344 346 348 349 351 351 353 353 353 356 358 361 360 355 358 364 356 366 363
307 301 308 313 319 319 317 318 306 306 298 297 302 307 309 316 321 325 327 327 328 333 336 340 341 344 347 348 350 351 352 352 353 353 355 356 357 360 360 360 363 359 360 363
310 306 305 310 310 308 312 311 312 310 308 299 298 304 316 319 323 325 327 330 330 333 334 339 341 345 347 349 350 352 352 352 353 354 355 356 356 357 359 358 361 363 365 363
310 306 302 305 311 312 310 311 311 305 303 308 306 304 322 324 325 327 328 328 331 335 336 335 342 345 346 347 348 351 352 352 353 355 356 357 358 358 356 358 359 363 363 364
310 303 299 301 307 311 308 311 313 311 311 300 301 303 321 325 326 328 329 332 331 334 337 337 338 344 344 342 348 350 352 353 354 356 356 357 356 357 356 358 360 362 361 362
312 303 301 297 301 305 307 309 312 311 305 303 304 308 312 322 325 328 330 333 333 333 335 335 334 338 341 342 343 351 352 354 356 356 356 356 356 356 356 359 361 360 362 361
310 302 304 304 305 308 307 308 309 309 309 305 306 308 315 322 324 331 331 333 333 334 335 337 334 334 338 339 344 349 352 355 355 354 354 356 358 359 361 360 361 361 359 358
312 304 306 303 305 307 305 307 308 310 311 312 313 312 326 327 328 332 330 331 331 333 334 339 338 339 336 339 342 345 351 354 355 351 349 357 360 360 360 358 359 358 356 356
308 307 305 300 304 305 301 305 307 309 312 312 308 317 324 325 324 326 332 333 333 334 337 337 341 341 341 339 340 341 348 352 352 346 347 355 357 355 358 358 357 354 350 354
308 308 306 301 301 294 305 312 311 309 311 314 315 319 324 322 323 326 332 331 331 333 336 339 341 343 337 339 344 343 343 347 351 346 344 352 347 349 354 347 346 346 347 347
311 308 302 300 298 301 305 309 309 308 307 312 314 321 323 322 327 322 325 327 326 328 329 330 332 337 340 339 340 339 338 339 339 340 343 346 344 346 343 341 342 343 343 344
310 312 305 301 296 293 306 313 315 314 304 316 319 324 325 327 321 320 322 324 324 324 325 327 328 331 333 334 342 341 337 338 340 340 344 345 346 345 340 341 340 341 341 334
305 306 302 300 299 301 310 314 316 303 308 321 325 328 327 323 324 323 325 324 324 324 324 325 323 323 326 330 338 340 342 340 340 341 338 336 336 336 340 341 338 334 327 323
304 303 303 304 300 296 313 313 308 316 323 325 328 329 322 324 327 326 324 323 323 323 324 324 321 321 322 324 325 323 324 330 334 334 333 333 333 333 334 334 328 326 324 321
305 309 309 306 306 315 319 317 320 321 323 327 327 328 329 326 326 326 324 325 326 325 323 321 319 317 317 319 319 318 319 324 325 324 322 324 327 327 328 332 330 326 325 322
312 314 310 309 314 315 318 320 321 325 326 330 328 329 327 324 324 323 324 325 325 326 325 323 323 319 315 316 316 316 317 318 317 316 316 315 320 322 323 322 324 325 327 325
313 315 308 309 314 318 319 323 324 326 330 330 329 327 326 324 324 326 326 327 327 325 325 326 323 321 319 319 319 319 319 319 314 313 311 313 315 311 308 306 310 311 305 310
315 312 307 307 314 319 320 324 327 327 327 328 328 327 327 326 325 325 324 324 323 321 322 321 320 318 318 318 319 321 321 321 318 316 315 313 310 311 309 307 303 299 303 303

GFSCGP_sfc_thetae_123.txt.gz
Theta_e
311 308 308 312 316 316 314 314 312 322 328 326 325 325 330 331 329 330 331 332 331 334 339 341 342 343 343 346 348 350 352 358 357 352 349 351 349 355 354 356 360 360 359 362
308 305 311 314 315 313 313 311 312 321 326 325 323 323 329 333 329 330 330 333 331 333 336 341 342 342 342 345 349 351 354 358 360 354 365 358 357 356 352 359 359 359 360 363
307 309 313 312 311 310 312 311 312 312 323 325 322 319 324 330 334 332 333 334 335 333 333 339 340 342 343 345 348 352 356 358 359 361 356 359 364 360 352 353 354 357 360 361
308 313 310 310 309 311 307 314 312 311 315 308 322 306 321 327 328 332 332 334 336 333 335 337 340 342 342 346 348 352 356 358 359 362 359 360 351 347 349 352 356 356 360 360
308 308 308 307 309 311 308 313 311 312 313 313 314 312 314 325 325 328 331 333 336 336 335 337 338 343 344 347 348 350 356 361 362 362 365 355 356 354 355 356 358 362 361 361
310 314 311 310 310 310 312 310 312 315 313 305 310 310 311 318 325 329 332 334 334 335 336 338 340 344 344 347 349 350 356 361 361 360 358 362 361 354 350 354 354 354 354 356
307 308 310 311 307 313 310 309 303 302 303 302 312 310 312 317 328 328 331 334 335 338 336 335 338 341 345 346 348 349 353 356 357 358 356 358 359 358 357 357 352 354 354 351
303 301 308 311 309 309 309 309 303 298 300 304 313 307 314 321 327 328 331 335 337 336 335 335 338 341 347 347 348 350 352 354 355 357 358 361 359 354 353 357 353 352 352 352
305 303 311 313 313 312 310 307 312 306 307 303 309 313 319 322 320 326 328 332 331 335 336 337 338 341 347 347 349 351 352 354 354 355 357 360 359 358 354 365 360 356 360 356
310 303 310 311 314 316 312 318 306 306 299 298 304 306 312 316 316 322 326 330 333 335 338 338 338 339 344 347 351 351 353 353 354 353 354 355 356 359 358 365 361 359 366 363
312 308 307 311 310 309 311 309 310 310 309 301 300 306 313 317 320 325 326 329 331 332 334 339 338 341 345 348 349 352 352 354 353 353 358 358 356 357 359 358 361 363 365 363
312 308 304 307 312 314 314 312 312 305 304 305 304 304 319 322 320 326 326 329 332 336 336 339 341 341 343 348 349 351 353 352 353 356 361 359 359 358 356 357 358 364 364 367
311 306 300 303 307 312 308 310 310 312 311 307 304 308 320 324 320 325 329 335 333 336 337 338 341 343 343 349 350 350 352 354 353 357 354 356 356 357 358 358 359 361 363 362
313 304 301 297 302 307 306 309 311 309 305 306 307 308 313 315 323 323 327 334 333 336 337 336 337 339 348 351 354 355 353 354 356 354 354 357 355 355 356 359 363 360 361 362
309 303 305 305 305 305 305 308 304 302 310 305 308 309 315 312 322 328 330 333 334 332 333 335 336 335 341 348 351 352 356 357 356 356 355 357 363 360 362 361 363 363 362 360
312 305 307 304 306 305 303 307 307 308 310 309 312 309 324 330 332 333 331 332 332 334 336 338 339 339 336 343 347 349 347 357 359 358 357 362 365 361 360 360 360 361 359 359
310 307 305 301 306 305 302 305 306 309 311 309 306 315 322 326 327 328 331 334 331 336 336 339 342 336 338 339 345 348 349 351 354 355 356 356 358 358 358 358 362 360 359 360
308 309 306 301 304 295 306 309 308 309 310 310 312 316 326 327 326 324 326 329 330 332 337 333 339 343 341 341 342 344 345 345 348 353 353 355 356 356 357 354 356 357 356 354
311 308 303 301 301 304 306 309 309 309 308 313 314 316 327 329 325 320 324 325 324 325 328 329 334 341 339 339 340 338 339 340 341 345 348 351 349 347 346 350 347 348 350 350
309 311 305 303 298 292 306 307 310 311 304 316 317 316 321 327 320 319 323 327 326 324 325 326 328 334 338 340 340 336 335 337 336 338 341 346 350 347 346 349 350 349 347 342
306 306 302 302 300 304 312 315 317 303 307 320 320 320 328 323 325 325 327 326 325 325 324 324 323 324 326 331 341 339 339 337 339 340 338 338 338 339 340 339 339 333 325 323
305 303 303 305 301 299 316 314 307 317 321 323 327 329 327 328 328 326 326 326 326 325 324 323 320 319 321 325 327 326 328 333 337 335 336 335 336 336 336 330 327 325 324 320
304 310 306 308 307 318 320 318 322 323 324 326 329 330 330 328 327 328 327 327 326 323 322 323 318 316 317 319 321 318 321 325 326 326 325 326 326 328 330 333 328 327 324 322
313 316 309 310 314 316 319 322 322 325 327 332 332 332 329 328 328 328 329 327 326 325 324 324 320 317 316 317 318 318 320 321 319 319 320 319 320 326 331 328 325 329 328 324
311 315 311 311 313 317 320 323 326 328 330 330 332 330 329 329 328 328 327 326 325 327 325 325 324 320 320 321 321 319 318 318 314 314 316 316 314 314 314 318 321 319 311 320
316 312 309 307 315 320 321 327 330 328 327 328 328 328 329 330 328 328 325 325 325 326 325 322 320 318 319 321 320 324 324 324 320 316 315 316 316 316 313 308 305 300 303 302

GFSCGP_sfc_thetae_126.txt.gz
Theta_e
309 306 306 312 316 316 314 314 316 323 327 324 323 323 329 331 330 332 329 331 331 334 337 339 338 340 343 347 349 354 350 353 354 358 354 348 357 356 351 347 366 366 364 367
307 303 309 314 314 314 313 311 311 320 325 321 320 321 328 332 329 330 325 326 333 333 334 339 339 339 340 346 349 355 356 358 353 357 361 359 351 356 352 360 364 363 365 370
305 308 311 310 311 311 311 309 311 314 323 323 319 316 320 330 333 332 332 334 335 334 334 337 339 340 342 345 349 353 357 359 362 362 353 358 362 355 346 357 357 361 362 366
308 312 310 310 310 311 306 313 312 312 310 306 320 304 317 323 329 331 330 333 332 335 337 336 339 337 341 345 350 353 358 359 361 364 364 355 354 349 354 360 363 361 359 364
307 308 308 308 309 311 309 313 312 311 309 309 314 310 313 323 322 327 331 332 336 335 333 337 333 341 342 346 348 354 358 359 360 362 365 359 360 359 357 347 364 368 368 368
310 314 312 310 312 312 312 310 309 311 310 303 309 309 308 316 323 327 331 333 335 334 334 337 336 343 343 344 346 353 357 357 361 361 359 362 359 357 344 356 349 359 359 360
307 308 311 312 308 311 309 305 299 299 300 300 313 307 314 321 322 328 330 333 335 334 335 336 336 336 342 344 347 351 355 354 358 357 358 358 363 359 355 354 352 358 359 359
303 300 308 311 308 306 308 306 300 297 299 302 313 306 312 325 328 328 328 330 335 336 336 336 336 337 340 346 347 350 354 355 355 357 359 362 362 360 357 361 358 358 360 349
305 304 312 311 312 310 307 306 310 303 306 302 306 314 320 321 319 320 327 333 334 337 338 335 339 340 341 348 349 350 354 355 357 355 358 360 362 360 358 359 365 363 371 361
310 303 310 311 313 313 309 314 306 305 298 296 303 307 308 315 318 325 326 329 332 338 340 336 341 337 344 348 347 352 355 354 356 355 356 355 356 361 361 367 367 366 369 368
311 308 307 311 308 307 309 307 309 308 307 300 300 304 317 317 320 325 327 324 332 334 338 341 340 339 340 344 350 352 353 355 354 355 357 356 356 358 360 358 363 363 365 368
312 308 303 306 313 315 312 309 311 303 302 306 305 305 320 321 321 328 322 326 333 333 332 339 338 339 340 343 347 351 353 354 354 355 359 357 359 359 355 359 361 362 360 366
311 305 299 300 306 311 309 310 310 310 309 305 303 304 320 321 322 324 327 329 328 333 329 338 339 337 340 340 347 350 353 354 354 356 356 357 359 358 359 355 361 362 359 362
313 306 301 297 301 305 304 308 310 309 303 305 305 307 315 319 318 322 326 330 329 334 336 341 341 341 340 340 345 349 353 356 355 355 354 356 357 358 358 363 362 363 363 360
306 301 303 304 305 305 304 304 305 307 307 304 307 308 313 317 318 325 330 335 333 333 335 338 339 341 341 345 344 347 353 356 355 354 354 355 358 360 360 360 363 364 359 362
310 303 306 303 305 305 303 305 305 307 308 307 308 308 321 319 318 320 329 333 333 332 335 337 336 337 339 337 341 338 347 347 353 355 354 358 360 361 361 362 362 361 361 364
309 306 305 301 306 306 301 305 307 308 311 308 304 312 321 311 312 313 326 330 330 330 330 331 338 336 336 336 342 334 341 354 348 353 357 359 360 358 359 359 359 358 358 360
307 308 306 301 303 294 305 312 311 309 310 310 311 315 322 320 322 323 326 325 325 327 327 326 335 338 341 343 342 346 350 352 352 344 345 352 356 355 357 358 358 359 359 356
309 307 302 299 299 303 306 309 308 306 307 314 313 315 319 321 323 320 326 325 325 326 325 326 328 333 339 339 339 340 345 348 350 347 346 345 345 347 351 351 353 355 354 347
309 311 304 302 297 295 307 312 314 313 301 312 318 316 317 316 313 318 325 326 324 325 326 326 325 326 329 334 339 336 335 336 338 339 340 341 343 342 346 348 350 350 343 341
306 304 301 301 299 303 313 312 317 303 307 315 315 315 315 319 326 324 325 325 325 324 324 324 323 322 322 327 338 334 334 332 336 338 338 336 337 336 333 331 329 326 323 320
304 304 303 305 302 299 317 315 309 318 320 314 313 309 314 325 324 325 326 325 324 323 322 321 318 318 320 323 329 331 326 336 336 335 335 334 335 334 330 327 326 324 321 318
302 308 306 307 307 319 321 319 320 320 321 319 313 311 323 326 325 325 326 324 324 322 320 319 318 318 319 319 321 321 323 326 328 327 326 326 328 332 331 328 327 325 323 319
313 316 311 311 310 314 319 320 322 322 320 323 321 326 328 325 327 326 326 325 325 323 320 319 317 315 316 318 320 319 321 324 325 323 322 322 323 327 328 328 329 327 325 324
312 315 311 311 314 319 321 323 322 326 328 329 330 329 327 327 326 326 326 326 325 326 325 323 319 317 317 318 317 319 318 319 319 319 319 316 315 317 315 310 313 320 310 312
315 312 309 308 319 318 318 320 326 327 326 324 326 327 329 329 328 327 326 328 326 324 321 319 320 320 320 322 323 324 323 320 319 318 318 317 317 317 314 312 309 300 301 300